Time,TemperatureF,DewpointF,PressureIn,WindDirection,WindDirectionDegrees,WindSpeedMPH,WindSpeedGustMPH,Humidity,HourlyPrecipIn,Conditions,Clouds,dailyrainin,SolarRadiationWatts/m^2,SoftwareType,DateUTC
2013-08-13 00:00:00,64.8,57.1,29.79,SW,236,0.0,1.0,76,0.00,,OVC050,0.00,0.00,VWS V14.01,2013-08-13 04:00:00,
2013-08-13 00:01:00,64.8,57.1,29.78,SW,236,0.0,1.0,76,0.00,,CLR,0.00,0.00,VWS V14.01,2013-08-13 04:01:00,
2013-08-13 00:02:00,64.8,57.1,29.79,SW,236,0.0,1.0,76,0.00,,CLR,0.00,0.00,VWS V14.01,2013-08-13 04:02:00,
2013-08-13 00:06:00,64.8,57.4,29.79,SW,236,0.0,0.0,77,0.00,,CLR,0.00,0.00,VWS V14.01,2013-08-13 04:06:00,
2013-08-13 00:07:00,64.8,57.4,29.79,SW,236,0.0,0.0,77,0.00,,CLR,0.00,0.00,VWS V14.01,2013-08-13 04:07:00,
2013-08-13 00:09:00,64.8,57.8,29.79,SW,236,0.0,0.0,78,0.00,,CLR,0.00,0.00,VWS V14.01,2013-08-13 04:09:00,
2013-08-13 00:11:00,64.7,57.7,29.79,SW,236,0.0,0.0,78,0.00,,CLR,0.00,0.00,VWS V14.01,2013-08-13 04:11:00,
2013-08-13 00:12:00,64.7,57.7,29.79,SW,236,0.0,0.0,78,0.00,,CLR,0.00,0.00,VWS V14.01,2013-08-13 04:12:00,
2013-08-13 00:15:00,64.7,58.0,29.79,SW,236,0.0,0.0,79,0.00,,CLR,0.00,0.00,VWS V14.01,2013-08-13 04:15:00,
2013-08-13 00:16:00,64.7,58.0,29.79,SW,236,0.0,0.0,79,0.00,,CLR,0.00,0.00,VWS V14.01,2013-08-13 04:16:00,
2013-08-13 00:17:00,64.7,58.0,29.79,SW,236,0.0,0.0,79,0.00,,CLR,0.00,0.00,VWS V14.01,2013-08-13 04:17:00,
2013-08-13 00:21:00,64.5,57.5,29.79,WSW,239,0.0,0.0,78,0.00,,CLR,0.00,0.00,VWS V14.01,2013-08-13 04:21:00,
2013-08-13 00:22:00,64.3,57.3,29.79,WSW,240,0.0,0.0,78,0.00,,CLR,0.00,0.00,VWS V14.01,2013-08-13 04:22:00,
2013-08-13 00:23:00,64.3,57.3,29.79,WSW,240,0.0,0.0,78,0.00,,CLR,0.00,0.00,VWS V14.01,2013-08-13 04:23:00,
2013-08-13 00:26:00,64.2,56.5,29.79,WSW,240,0.0,0.0,76,0.00,,CLR,0.00,0.00,VWS V14.01,2013-08-13 04:26:00,
2013-08-13 00:27:00,64.2,56.1,29.79,WSW,240,0.0,0.0,75,0.00,,CLR,0.00,0.00,VWS V14.01,2013-08-13 04:27:00,
2013-08-13 00:28:00,64.2,56.1,29.79,WSW,241,0.0,1.0,75,0.00,,CLR,0.00,0.00,VWS V14.01,2013-08-13 04:28:00,
2013-08-13 00:29:00,64.2,55.8,29.79,WSW,256,0.0,1.0,74,0.00,,CLR,0.00,0.00,VWS V14.01,2013-08-13 04:29:00,
2013-08-13 00:30:00,64.0,55.6,29.79,South,179,0.0,1.0,74,0.00,,OVC050,0.00,0.00,VWS V14.01,2013-08-13 04:30:00,
2013-08-13 00:31:00,64.0,55.6,29.79,South,179,0.0,1.0,74,0.00,,CLR,0.00,0.00,VWS V14.01,2013-08-13 04:31:00,
2013-08-13 00:32:00,64.0,55.6,29.79,South,179,0.0,0.0,74,0.00,,CLR,0.00,0.00,VWS V14.01,2013-08-13 04:32:00,
2013-08-13 00:33:00,64.0,55.2,29.79,South,179,0.0,0.0,73,0.00,,CLR,0.00,0.00,VWS V14.01,2013-08-13 04:33:00,
2013-08-13 00:34:00,64.0,55.2,29.79,South,179,0.0,0.0,73,0.00,,CLR,0.00,0.00,VWS V14.01,2013-08-13 04:34:00,
2013-08-13 00:36:00,64.2,55.4,29.79,WSW,237,0.0,2.0,73,0.00,,CLR,0.00,0.00,VWS V14.01,2013-08-13 04:36:00,
2013-08-13 00:38:00,64.2,55.0,29.79,WSW,237,0.0,2.0,72,0.00,,CLR,0.00,0.00,VWS V14.01,2013-08-13 04:38:00,
2013-08-13 00:39:00,64.2,55.4,29.79,WSW,237,0.0,2.0,73,0.00,,CLR,0.00,0.00,VWS V14.01,2013-08-13 04:39:00,
2013-08-13 00:41:00,64.2,55.4,29.79,WSW,237,0.0,2.0,73,0.00,,CLR,0.00,0.00,VWS V14.01,2013-08-13 04:41:00,
2013-08-13 00:43:00,64.2,55.4,29.79,WSW,237,0.0,2.0,73,0.00,,CLR,0.00,0.00,VWS V14.01,2013-08-13 04:43:00,
2013-08-13 00:44:00,64.3,55.1,29.79,WSW,237,0.0,2.0,72,0.00,,CLR,0.00,0.00,VWS V14.01,2013-08-13 04:44:00,
2013-08-13 00:45:00,64.3,55.1,29.79,WSW,239,0.0,2.0,72,0.00,,CLR,0.00,0.00,VWS V14.01,2013-08-13 04:45:00,
2013-08-13 00:46:00,64.3,55.1,29.79,WSW,239,0.0,2.0,72,0.00,,CLR,0.00,0.00,VWS V14.01,2013-08-13 04:46:00,
2013-08-13 00:49:00,64.3,55.1,29.79,WSW,239,0.0,2.0,72,0.00,,CLR,0.00,0.00,VWS V14.01,2013-08-13 04:49:00,
2013-08-13 00:50:00,64.5,55.3,29.79,WSW,239,0.0,2.0,72,0.00,,CLR,0.00,0.00,VWS V14.01,2013-08-13 04:50:00,
2013-08-13 00:51:00,64.5,55.3,29.79,WSW,239,0.0,2.0,72,0.00,,CLR,0.00,0.00,VWS V14.01,2013-08-13 04:51:00,
2013-08-13 00:54:00,64.5,54.9,29.79,WSW,239,0.0,2.0,71,0.00,,CLR,0.00,0.00,VWS V14.01,2013-08-13 04:54:00,
2013-08-13 00:56:00,64.5,55.3,29.79,WSW,239,0.0,2.0,72,0.00,,CLR,0.00,0.00,VWS V14.01,2013-08-13 04:56:00,
2013-08-13 00:59:00,64.7,55.5,29.79,WSW,239,0.0,2.0,72,0.00,,CLR,0.00,0.00,VWS V14.01,2013-08-13 04:59:00,
2013-08-13 01:00:00,64.7,55.5,29.79,WSW,239,0.0,2.0,72,0.00,,CLR,0.00,0.00,VWS V14.01,2013-08-13 05:00:00,
2013-08-13 01:01:00,64.7,55.5,29.78,WSW,240,0.0,2.0,72,0.00,,CLR,0.00,0.00,VWS V14.01,2013-08-13 05:01:00,
2013-08-13 01:02:00,64.7,55.5,29.78,WSW,240,0.0,0.0,72,0.00,,CLR,0.00,0.00,VWS V14.01,2013-08-13 05:02:00,
2013-08-13 01:05:00,64.7,55.5,29.78,WSW,240,0.0,0.0,72,0.00,,CLR,0.00,0.00,VWS V14.01,2013-08-13 05:05:00,
2013-08-13 01:06:00,64.8,56.0,29.78,WSW,240,0.0,0.0,73,0.00,,CLR,0.00,0.00,VWS V14.01,2013-08-13 05:06:00,
2013-08-13 01:09:00,64.8,56.0,29.78,WSW,240,0.0,2.0,73,0.00,,CLR,0.00,0.00,VWS V14.01,2013-08-13 05:09:00,
2013-08-13 01:10:00,64.8,56.0,29.78,WSW,240,0.0,2.0,73,0.00,,CLR,0.00,0.00,VWS V14.01,2013-08-13 05:10:00,
2013-08-13 01:11:00,64.8,56.0,29.78,WSW,240,0.0,2.0,73,0.00,,CLR,0.00,0.00,VWS V14.01,2013-08-13 05:11:00,
2013-08-13 01:12:00,64.8,56.0,29.78,WSW,240,0.0,2.0,73,0.00,,CLR,0.00,0.00,VWS V14.01,2013-08-13 05:12:00,
2013-08-13 01:15:00,64.8,56.0,29.78,WSW,240,0.0,2.0,73,0.00,,CLR,0.00,0.00,VWS V14.01,2013-08-13 05:15:00,
2013-08-13 01:17:00,64.8,56.0,29.78,WSW,240,0.0,2.0,73,0.00,,CLR,0.00,0.00,VWS V14.01,2013-08-13 05:17:00,
2013-08-13 01:20:00,64.8,56.0,29.78,WSW,240,0.0,2.0,73,0.00,,CLR,0.00,0.00,VWS V14.01,2013-08-13 05:20:00,
2013-08-13 01:21:00,64.8,56.0,29.78,WSW,240,0.0,2.0,73,0.00,,CLR,0.00,0.00,VWS V14.01,2013-08-13 05:21:00,
2013-08-13 01:22:00,64.8,56.0,29.78,WSW,240,0.0,2.0,73,0.00,,CLR,0.00,0.00,VWS V14.01,2013-08-13 05:22:00,
2013-08-13 01:25:00,64.7,55.9,29.78,WSW,240,0.0,2.0,73,0.00,,CLR,0.00,0.00,VWS V14.01,2013-08-13 05:25:00,
2013-08-13 01:26:00,64.7,55.9,29.78,WSW,240,0.0,2.0,73,0.00,,CLR,0.00,0.00,VWS V14.01,2013-08-13 05:26:00,
2013-08-13 01:28:00,64.7,55.9,29.78,WSW,240,0.0,2.0,73,0.00,,CLR,0.00,0.00,VWS V14.01,2013-08-13 05:28:00,
2013-08-13 01:30:00,64.7,55.5,29.78,WSW,240,0.0,2.0,72,0.00,,CLR,0.00,0.00,VWS V14.01,2013-08-13 05:30:00,
2013-08-13 01:31:00,64.7,55.9,29.78,WSW,240,0.0,2.0,73,0.00,,CLR,0.00,0.00,VWS V14.01,2013-08-13 05:31:00,
2013-08-13 01:33:00,64.7,55.9,29.78,WSW,240,0.0,0.0,73,0.00,,CLR,0.00,0.00,VWS V14.01,2013-08-13 05:33:00,
2013-08-13 01:34:00,64.7,55.5,29.78,WSW,240,0.0,0.0,72,0.00,,CLR,0.00,0.00,VWS V14.01,2013-08-13 05:34:00,
2013-08-13 01:35:00,64.7,55.5,29.78,WSW,240,0.0,0.0,72,0.00,,CLR,0.00,0.00,VWS V14.01,2013-08-13 05:35:00,
2013-08-13 01:36:00,64.5,55.3,29.78,WSW,240,0.0,0.0,72,0.00,,CLR,0.00,0.00,VWS V14.01,2013-08-13 05:36:00,
2013-08-13 01:37:00,64.5,55.3,29.78,WSW,240,0.0,0.0,72,0.00,,CLR,0.00,0.00,VWS V14.01,2013-08-13 05:37:00,
2013-08-13 01:38:00,64.5,55.3,29.78,WSW,240,0.0,0.0,72,0.00,,CLR,0.00,0.00,VWS V14.01,2013-08-13 05:38:00,
2013-08-13 01:39:00,64.5,55.3,29.78,WSW,240,0.0,0.0,72,0.00,,CLR,0.00,0.00,VWS V14.01,2013-08-13 05:39:00,
2013-08-13 01:40:00,64.5,55.3,29.78,WSW,240,0.0,0.0,72,0.00,,CLR,0.00,0.00,VWS V14.01,2013-08-13 05:40:00,
2013-08-13 01:41:00,64.5,55.3,29.78,WSW,240,0.0,0.0,72,0.00,,CLR,0.00,0.00,VWS V14.01,2013-08-13 05:41:00,
2013-08-13 01:42:00,64.5,55.3,29.78,WSW,240,0.0,0.0,72,0.00,,CLR,0.00,0.00,VWS V14.01,2013-08-13 05:42:00,
2013-08-13 01:44:00,64.5,55.3,29.78,WSW,240,0.0,0.0,72,0.00,,CLR,0.00,0.00,VWS V14.01,2013-08-13 05:44:00,
2013-08-13 01:45:00,64.5,55.3,29.78,WSW,240,0.0,0.0,72,0.00,,CLR,0.00,0.00,VWS V14.01,2013-08-13 05:45:00,
2013-08-13 01:47:00,64.5,55.3,29.78,WSW,240,0.0,0.0,72,0.00,,CLR,0.00,0.00,VWS V14.01,2013-08-13 05:47:00,
2013-08-13 01:49:00,64.5,55.7,29.78,WSW,240,0.0,0.0,73,0.00,,CLR,0.00,0.00,VWS V14.01,2013-08-13 05:49:00,
2013-08-13 01:50:00,64.5,55.7,29.78,WSW,240,0.0,0.0,73,0.00,,CLR,0.00,0.00,VWS V14.01,2013-08-13 05:50:00,
2013-08-13 01:51:00,64.5,55.7,29.78,WSW,240,0.0,0.0,73,0.00,,CLR,0.00,0.00,VWS V14.01,2013-08-13 05:51:00,
2013-08-13 01:52:00,64.5,55.7,29.78,WSW,240,0.0,0.0,73,0.00,,CLR,0.00,0.00,VWS V14.01,2013-08-13 05:52:00,
2013-08-13 01:53:00,64.5,55.7,29.78,WSW,240,0.0,0.0,73,0.00,,CLR,0.00,0.00,VWS V14.01,2013-08-13 05:53:00,
2013-08-13 01:55:00,64.3,55.5,29.78,WSW,240,0.0,0.0,73,0.00,,CLR,0.00,0.00,VWS V14.01,2013-08-13 05:55:00,
2013-08-13 01:56:00,64.3,55.8,29.78,WSW,240,0.0,0.0,74,0.00,,CLR,0.00,0.00,VWS V14.01,2013-08-13 05:56:00,
2013-08-13 01:57:00,64.3,55.8,29.78,WSW,240,0.0,0.0,74,0.00,,CLR,0.00,0.00,VWS V14.01,2013-08-13 05:57:00,
2013-08-13 01:58:00,64.3,55.8,29.78,WSW,240,0.0,0.0,74,0.00,,CLR,0.00,0.00,VWS V14.01,2013-08-13 05:58:00,
2013-08-13 02:00:00,64.3,55.8,29.78,WSW,240,0.0,0.0,74,0.00,,SCT055,0.00,0.00,VWS V14.01,2013-08-13 06:00:00,
2013-08-13 02:01:00,64.3,55.8,29.78,WSW,240,0.0,0.0,74,0.00,,SCT055,0.00,0.00,VWS V14.01,2013-08-13 06:01:00,
2013-08-13 02:02:00,64.3,55.8,29.78,WSW,240,0.0,0.0,74,0.00,,SCT055,0.00,0.00,VWS V14.01,2013-08-13 06:02:00,
2013-08-13 02:04:00,64.2,55.8,29.78,WSW,240,0.0,0.0,74,0.00,,SCT055,0.00,0.00,VWS V14.01,2013-08-13 06:04:00,
2013-08-13 02:05:00,64.2,55.8,29.78,WSW,240,0.0,0.0,74,0.00,,SCT055,0.00,0.00,VWS V14.01,2013-08-13 06:05:00,
2013-08-13 02:06:00,64.2,55.8,29.78,WSW,240,0.0,0.0,74,0.00,,SCT055,0.00,0.00,VWS V14.01,2013-08-13 06:06:00,
2013-08-13 02:07:00,64.2,56.1,29.78,WSW,240,0.0,0.0,75,0.00,,SCT055,0.00,0.00,VWS V14.01,2013-08-13 06:07:00,
2013-08-13 02:08:00,64.2,56.1,29.78,WSW,240,0.0,0.0,75,0.00,,SCT055,0.00,0.00,VWS V14.01,2013-08-13 06:08:00,
2013-08-13 02:09:00,64.2,56.1,29.78,WSW,240,0.0,0.0,75,0.00,,SCT055,0.00,0.00,VWS V14.01,2013-08-13 06:09:00,
2013-08-13 02:10:00,64.0,55.9,29.78,WSW,240,0.0,0.0,75,0.00,,SCT055,0.00,0.00,VWS V14.01,2013-08-13 06:10:00,
2013-08-13 02:12:00,64.0,55.9,29.78,WSW,240,0.0,0.0,75,0.00,,SCT055,0.00,0.00,VWS V14.01,2013-08-13 06:12:00,
2013-08-13 02:13:00,64.0,55.9,29.78,WSW,240,0.0,0.0,75,0.00,,SCT055,0.00,0.00,VWS V14.01,2013-08-13 06:13:00,
2013-08-13 02:14:00,64.0,55.9,29.78,WSW,240,0.0,0.0,75,0.00,,SCT055,0.00,0.00,VWS V14.01,2013-08-13 06:14:00,
2013-08-13 02:15:00,64.0,56.3,29.78,WSW,240,0.0,0.0,76,0.00,,SCT055,0.00,0.00,VWS V14.01,2013-08-13 06:15:00,
2013-08-13 02:17:00,63.9,56.2,29.77,WSW,240,0.0,0.0,76,0.00,,SCT055,0.00,0.00,VWS V14.01,2013-08-13 06:17:00,
2013-08-13 02:19:00,63.9,56.2,29.77,WSW,240,0.0,0.0,76,0.00,,SCT055,0.00,0.00,VWS V14.01,2013-08-13 06:19:00,
2013-08-13 02:20:00,63.9,56.2,29.77,WSW,240,0.0,0.0,76,0.00,,SCT055,0.00,0.00,VWS V14.01,2013-08-13 06:20:00,
2013-08-13 02:21:00,63.9,56.2,29.77,WSW,240,0.0,0.0,76,0.00,,SCT055,0.00,0.00,VWS V14.01,2013-08-13 06:21:00,
2013-08-13 02:22:00,63.7,56.0,29.77,SW,234,0.0,0.0,76,0.00,,SCT055,0.00,0.00,VWS V14.01,2013-08-13 06:22:00,
2013-08-13 02:23:00,63.7,56.0,29.77,WSW,240,0.0,0.0,76,0.00,,SCT055,0.00,0.00,VWS V14.01,2013-08-13 06:23:00,
2013-08-13 02:25:00,63.7,55.6,29.77,WSW,240,0.0,0.0,75,0.00,,SCT055,0.00,0.00,VWS V14.01,2013-08-13 06:25:00,
2013-08-13 02:26:00,63.7,55.6,29.77,WSW,240,0.0,0.0,75,0.00,,SCT055,0.00,0.00,VWS V14.01,2013-08-13 06:26:00,
2013-08-13 02:28:00,63.5,55.4,29.77,WSW,240,0.0,0.0,75,0.00,,SCT055,0.00,0.00,VWS V14.01,2013-08-13 06:28:00,
2013-08-13 02:30:00,63.5,55.4,29.77,WSW,240,0.0,0.0,75,0.00,,SCT055,0.00,0.00,VWS V14.01,2013-08-13 06:30:00,
2013-08-13 02:31:00,63.5,55.4,29.77,WSW,240,0.0,0.0,75,0.00,,SCT055,0.00,0.00,VWS V14.01,2013-08-13 06:31:00,
2013-08-13 02:33:00,63.5,55.4,29.77,WSW,240,0.0,0.0,75,0.00,,SCT055,0.00,0.00,VWS V14.01,2013-08-13 06:33:00,
2013-08-13 02:35:00,63.4,55.3,29.77,WSW,240,0.0,0.0,75,0.00,,SCT055,0.00,0.00,VWS V14.01,2013-08-13 06:35:00,
2013-08-13 02:36:00,63.4,55.3,29.77,WSW,240,0.0,0.0,75,0.00,,SCT055,0.00,0.00,VWS V14.01,2013-08-13 06:36:00,
2013-08-13 02:38:00,63.4,55.3,29.77,WSW,240,0.0,0.0,75,0.00,,SCT055,0.00,0.00,VWS V14.01,2013-08-13 06:38:00,
2013-08-13 02:39:00,63.4,55.3,29.77,WSW,240,0.0,0.0,75,0.00,,SCT055,0.00,0.00,VWS V14.01,2013-08-13 06:39:00,
2013-08-13 02:40:00,63.4,55.3,29.77,WSW,240,0.0,0.0,75,0.00,,SCT055,0.00,0.00,VWS V14.01,2013-08-13 06:40:00,
2013-08-13 02:41:00,63.4,55.3,29.77,WSW,240,0.0,0.0,75,0.00,,SCT055,0.00,0.00,VWS V14.01,2013-08-13 06:41:00,
2013-08-13 02:42:00,63.4,55.3,29.77,WSW,240,0.0,0.0,75,0.00,,SCT055,0.00,0.00,VWS V14.01,2013-08-13 06:42:00,
2013-08-13 02:44:00,63.4,55.7,29.77,WSW,240,0.0,0.0,76,0.00,,SCT055,0.00,0.00,VWS V14.01,2013-08-13 06:44:00,
2013-08-13 02:46:00,63.4,55.7,29.77,WSW,240,0.0,0.0,76,0.00,,SCT055,0.00,0.00,VWS V14.01,2013-08-13 06:46:00,
2013-08-13 02:47:00,63.4,55.7,29.76,WSW,240,0.0,0.0,76,0.00,,SCT055,0.00,0.00,VWS V14.01,2013-08-13 06:47:00,
2013-08-13 02:49:00,63.4,55.7,29.76,WSW,240,0.0,0.0,76,0.00,,SCT055,0.00,0.00,VWS V14.01,2013-08-13 06:49:00,
2013-08-13 02:51:00,63.2,55.5,29.76,WSW,240,0.0,0.0,76,0.00,,SCT055,0.00,0.00,VWS V14.01,2013-08-13 06:51:00,
2013-08-13 02:53:00,63.2,55.5,29.76,WSW,240,0.0,0.0,76,0.00,,SCT055,0.00,0.00,VWS V14.01,2013-08-13 06:53:00,
2013-08-13 02:54:00,63.2,55.5,29.76,WSW,240,0.0,0.0,76,0.00,,SCT055,0.00,0.00,VWS V14.01,2013-08-13 06:54:00,
2013-08-13 02:56:00,63.2,55.5,29.76,WSW,240,0.0,0.0,76,0.00,,SCT055,0.00,0.00,VWS V14.01,2013-08-13 06:56:00,
2013-08-13 02:58:00,63.2,55.5,29.76,WSW,240,0.0,0.0,76,0.00,,SCT055,0.00,0.00,VWS V14.01,2013-08-13 06:58:00,
2013-08-13 03:00:00,63.2,55.5,29.76,WSW,240,0.0,0.0,76,0.00,,FEW075,0.00,0.00,VWS V14.01,2013-08-13 07:00:00,
2013-08-13 03:01:00,63.2,55.5,29.76,WSW,240,0.0,0.0,76,0.00,,FEW075,0.00,0.00,VWS V14.01,2013-08-13 07:01:00,
2013-08-13 03:02:00,63.2,55.5,29.76,WSW,240,0.0,0.0,76,0.00,,FEW075,0.00,0.00,VWS V14.01,2013-08-13 07:02:00,
2013-08-13 03:04:00,63.2,56.2,29.76,WSW,240,0.0,0.0,78,0.00,,FEW075,0.00,0.00,VWS V14.01,2013-08-13 07:04:00,
2013-08-13 03:05:00,63.2,56.2,29.76,WSW,240,0.0,0.0,78,0.00,,FEW075,0.00,0.00,VWS V14.01,2013-08-13 07:05:00,
2013-08-13 03:07:00,63.2,56.6,29.76,WSW,240,0.0,0.0,79,0.00,,FEW075,0.00,0.00,VWS V14.01,2013-08-13 07:07:00,
2013-08-13 03:08:00,63.2,56.9,29.76,WSW,240,0.0,0.0,80,0.00,,FEW075,0.00,0.00,VWS V14.01,2013-08-13 07:08:00,
2013-08-13 03:09:00,63.2,56.9,29.76,WSW,240,0.0,0.0,80,0.00,,FEW075,0.00,0.00,VWS V14.01,2013-08-13 07:09:00,
2013-08-13 03:11:00,63.2,57.3,29.76,WSW,240,0.0,0.0,81,0.00,,FEW075,0.00,0.00,VWS V14.01,2013-08-13 07:11:00,
2013-08-13 03:12:00,63.2,57.3,29.76,WSW,240,0.0,0.0,81,0.00,,FEW075,0.00,0.00,VWS V14.01,2013-08-13 07:12:00,
2013-08-13 03:13:00,63.2,57.3,29.76,WSW,240,0.0,0.0,81,0.00,,FEW075,0.00,0.00,VWS V14.01,2013-08-13 07:13:00,
2013-08-13 03:14:00,63.2,57.3,29.76,WSW,240,0.0,0.0,81,0.00,,FEW075,0.00,0.00,VWS V14.01,2013-08-13 07:14:00,
2013-08-13 03:15:00,63.2,57.3,29.76,WSW,240,0.0,0.0,81,0.00,,FEW075,0.00,0.00,VWS V14.01,2013-08-13 07:15:00,
2013-08-13 03:16:00,63.2,57.3,29.76,WSW,240,0.0,0.0,81,0.00,,FEW075,0.00,0.00,VWS V14.01,2013-08-13 07:16:00,
2013-08-13 03:17:00,63.2,57.3,29.76,WSW,240,0.0,0.0,81,0.00,,FEW075,0.00,0.00,VWS V14.01,2013-08-13 07:17:00,
2013-08-13 03:18:00,63.2,57.3,29.76,WSW,240,0.0,0.0,81,0.00,,FEW075,0.00,0.00,VWS V14.01,2013-08-13 07:18:00,
2013-08-13 03:19:00,63.2,57.3,29.76,WSW,240,0.0,0.0,81,0.00,,FEW075,0.00,0.00,VWS V14.01,2013-08-13 07:19:00,
2013-08-13 03:21:00,63.2,57.3,29.76,WSW,240,0.0,0.0,81,0.00,,FEW075,0.00,0.00,VWS V14.01,2013-08-13 07:21:00,
2013-08-13 03:22:00,63.2,57.3,29.76,WSW,240,0.0,0.0,81,0.00,,FEW075,0.00,0.00,VWS V14.01,2013-08-13 07:22:00,
2013-08-13 03:23:00,63.2,57.3,29.76,WSW,240,0.0,0.0,81,0.00,,FEW075,0.00,0.00,VWS V14.01,2013-08-13 07:23:00,
2013-08-13 03:25:00,63.1,57.2,29.76,SW,233,0.0,0.0,81,0.00,,FEW075,0.00,0.00,VWS V14.01,2013-08-13 07:25:00,
2013-08-13 03:26:00,63.1,57.2,29.76,WSW,237,0.0,0.0,81,0.00,,FEW075,0.00,0.00,VWS V14.01,2013-08-13 07:26:00,
2013-08-13 03:27:00,63.1,56.8,29.76,WSW,237,0.0,0.0,80,0.00,,FEW075,0.00,0.00,VWS V14.01,2013-08-13 07:27:00,
2013-08-13 03:29:00,63.1,56.8,29.76,WSW,237,0.0,0.0,80,0.00,,FEW075,0.00,0.00,VWS V14.01,2013-08-13 07:29:00,
2013-08-13 03:30:00,63.1,56.8,29.76,WSW,237,0.0,0.0,80,0.00,,FEW075,0.00,0.00,VWS V14.01,2013-08-13 07:30:00,
2013-08-13 03:31:00,63.1,56.8,29.75,WSW,237,0.0,0.0,80,0.00,,FEW075,0.00,0.00,VWS V14.01,2013-08-13 07:31:00,
2013-08-13 03:32:00,62.9,56.6,29.75,WSW,237,0.0,0.0,80,0.00,,FEW075,0.00,0.00,VWS V14.01,2013-08-13 07:32:00,
2013-08-13 03:34:00,62.9,56.6,29.75,WSW,237,0.0,0.0,80,0.00,,FEW075,0.00,0.00,VWS V14.01,2013-08-13 07:34:00,
2013-08-13 03:35:00,62.9,56.6,29.75,WSW,237,0.0,0.0,80,0.00,,FEW075,0.00,0.00,VWS V14.01,2013-08-13 07:35:00,
2013-08-13 03:36:00,62.9,56.6,29.75,WSW,239,0.0,0.0,80,0.00,,FEW075,0.00,0.00,VWS V14.01,2013-08-13 07:36:00,
2013-08-13 03:38:00,62.9,56.6,29.75,WSW,239,0.0,0.0,80,0.00,,FEW075,0.00,0.00,VWS V14.01,2013-08-13 07:38:00,
2013-08-13 03:39:00,62.9,56.6,29.75,WSW,239,0.0,0.0,80,0.00,,FEW075,0.00,0.00,VWS V14.01,2013-08-13 07:39:00,
2013-08-13 03:40:00,62.9,56.6,29.75,WSW,239,0.0,0.0,80,0.00,,FEW075,0.00,0.00,VWS V14.01,2013-08-13 07:40:00,
2013-08-13 03:42:00,62.7,56.1,29.75,WSW,239,0.0,0.0,79,0.00,,FEW075,0.00,0.00,VWS V14.01,2013-08-13 07:42:00,
2013-08-13 03:43:00,62.7,56.1,29.75,WSW,239,0.0,0.0,79,0.00,,FEW075,0.00,0.00,VWS V14.01,2013-08-13 07:43:00,
2013-08-13 03:44:00,62.7,56.1,29.75,WSW,239,0.0,0.0,79,0.00,,FEW075,0.00,0.00,VWS V14.01,2013-08-13 07:44:00,
2013-08-13 03:45:00,62.7,56.1,29.75,WSW,239,0.0,0.0,79,0.00,,FEW075,0.00,0.00,VWS V14.01,2013-08-13 07:45:00,
2013-08-13 03:46:00,62.7,56.1,29.75,WSW,239,0.0,0.0,79,0.00,,FEW075,0.00,0.00,VWS V14.01,2013-08-13 07:46:00,
2013-08-13 03:47:00,62.7,56.1,29.75,WSW,239,0.0,0.0,79,0.00,,FEW075,0.00,0.00,VWS V14.01,2013-08-13 07:47:00,
2013-08-13 03:48:00,62.7,56.1,29.75,WSW,239,0.0,0.0,79,0.00,,FEW075,0.00,0.00,VWS V14.01,2013-08-13 07:48:00,
2013-08-13 03:50:00,62.7,56.1,29.75,WSW,239,0.0,0.0,79,0.00,,FEW075,0.00,0.00,VWS V14.01,2013-08-13 07:50:00,
2013-08-13 03:51:00,62.7,56.1,29.75,WSW,239,0.0,0.0,79,0.00,,FEW075,0.00,0.00,VWS V14.01,2013-08-13 07:51:00,
2013-08-13 03:52:00,62.7,56.1,29.75,WSW,239,0.0,0.0,79,0.00,,FEW075,0.00,0.00,VWS V14.01,2013-08-13 07:52:00,
2013-08-13 03:54:00,62.9,56.3,29.75,WSW,239,0.0,0.0,79,0.00,,FEW075,0.00,0.00,VWS V14.01,2013-08-13 07:54:00,
2013-08-13 03:55:00,62.7,56.1,29.75,WSW,239,0.0,0.0,79,0.00,,FEW075,0.00,0.00,VWS V14.01,2013-08-13 07:55:00,
2013-08-13 03:57:00,62.7,56.1,29.75,WSW,239,0.0,0.0,79,0.00,,FEW075,0.00,0.00,VWS V14.01,2013-08-13 07:57:00,
2013-08-13 03:59:00,62.9,56.3,29.75,WSW,239,0.0,0.0,79,0.00,,FEW075,0.00,0.00,VWS V14.01,2013-08-13 07:59:00,
2013-08-13 04:00:00,62.9,56.3,29.75,WSW,239,0.0,0.0,79,0.00,,FEW075,0.00,0.00,VWS V14.01,2013-08-13 08:00:00,
2013-08-13 04:02:00,62.9,56.3,29.74,WSW,239,0.0,0.0,79,0.00,,CLR,0.00,0.00,VWS V14.01,2013-08-13 08:02:00,
2013-08-13 04:04:00,62.9,55.9,29.74,WSW,239,0.0,0.0,78,0.00,,CLR,0.00,0.00,VWS V14.01,2013-08-13 08:04:00,
2013-08-13 04:05:00,62.9,55.9,29.74,WSW,239,0.0,0.0,78,0.00,,CLR,0.00,0.00,VWS V14.01,2013-08-13 08:05:00,
2013-08-13 04:06:00,62.9,55.9,29.74,WSW,239,0.0,0.0,78,0.00,,CLR,0.00,0.00,VWS V14.01,2013-08-13 08:06:00,
2013-08-13 04:07:00,62.9,55.9,29.74,WSW,239,0.0,0.0,78,0.00,,CLR,0.00,0.00,VWS V14.01,2013-08-13 08:07:00,
2013-08-13 04:08:00,62.9,55.9,29.74,WSW,239,0.0,0.0,78,0.00,,CLR,0.00,0.00,VWS V14.01,2013-08-13 08:08:00,
2013-08-13 04:10:00,62.9,55.9,29.74,WSW,239,0.0,0.0,78,0.00,,CLR,0.00,0.00,VWS V14.01,2013-08-13 08:10:00,
2013-08-13 04:11:00,62.9,55.9,29.74,WSW,239,0.0,0.0,78,0.00,,CLR,0.00,0.00,VWS V14.01,2013-08-13 08:11:00,
2013-08-13 04:12:00,62.9,55.9,29.74,WSW,239,0.0,0.0,78,0.00,,CLR,0.00,0.00,VWS V14.01,2013-08-13 08:12:00,
2013-08-13 04:14:00,62.9,55.9,29.74,WSW,239,0.0,0.0,78,0.00,,CLR,0.00,0.00,VWS V14.01,2013-08-13 08:14:00,
2013-08-13 04:15:00,62.9,55.9,29.74,WSW,239,0.0,0.0,78,0.00,,CLR,0.00,0.00,VWS V14.01,2013-08-13 08:15:00,
2013-08-13 04:17:00,62.9,55.9,29.74,WSW,239,0.0,0.0,78,0.00,,CLR,0.00,0.00,VWS V14.01,2013-08-13 08:17:00,
2013-08-13 04:18:00,62.9,55.9,29.74,WSW,239,0.0,0.0,78,0.00,,CLR,0.00,0.00,VWS V14.01,2013-08-13 08:18:00,
2013-08-13 04:20:00,62.9,55.9,29.74,WSW,239,0.0,0.0,78,0.00,,CLR,0.00,0.00,VWS V14.01,2013-08-13 08:20:00,
2013-08-13 04:22:00,62.9,55.9,29.74,WSW,239,0.0,0.0,78,0.00,,CLR,0.00,0.00,VWS V14.01,2013-08-13 08:22:00,
2013-08-13 04:23:00,62.9,55.9,29.74,WSW,239,0.0,0.0,78,0.00,,CLR,0.00,0.00,VWS V14.01,2013-08-13 08:23:00,
2013-08-13 04:25:00,63.1,56.1,29.74,WSW,239,0.0,0.0,78,0.00,,CLR,0.00,0.00,VWS V14.01,2013-08-13 08:25:00,
2013-08-13 04:27:00,63.1,56.1,29.74,WSW,239,0.0,0.0,78,0.00,,CLR,0.00,0.00,VWS V14.01,2013-08-13 08:27:00,
2013-08-13 04:28:00,63.1,56.1,29.74,WSW,239,0.0,0.0,78,0.00,,CLR,0.00,0.00,VWS V14.01,2013-08-13 08:28:00,
2013-08-13 04:29:00,63.1,56.1,29.74,WSW,239,0.0,0.0,78,0.00,,CLR,0.00,0.00,VWS V14.01,2013-08-13 08:29:00,
2013-08-13 04:30:00,63.1,56.5,29.75,WSW,239,0.0,0.0,79,0.00,,OVC050,0.00,0.00,VWS V14.01,2013-08-13 08:30:00,
2013-08-13 04:32:00,63.1,56.5,29.75,WSW,239,0.0,0.0,79,0.00,,CLR,0.00,0.00,VWS V14.01,2013-08-13 08:32:00,
2013-08-13 04:33:00,63.1,56.5,29.75,WSW,239,0.0,0.0,79,0.00,,CLR,0.00,0.00,VWS V14.01,2013-08-13 08:33:00,
2013-08-13 04:35:00,63.1,56.5,29.75,WSW,239,0.0,0.0,79,0.00,,CLR,0.00,0.00,VWS V14.01,2013-08-13 08:35:00,
2013-08-13 04:37:00,63.1,56.5,29.75,WSW,239,0.0,0.0,79,0.00,,CLR,0.00,0.00,VWS V14.01,2013-08-13 08:37:00,
2013-08-13 04:38:00,63.1,56.5,29.75,WSW,239,0.0,0.0,79,0.00,,CLR,0.00,0.00,VWS V14.01,2013-08-13 08:38:00,
2013-08-13 04:39:00,63.1,56.5,29.75,WSW,239,0.0,0.0,79,0.00,,CLR,0.00,0.00,VWS V14.01,2013-08-13 08:39:00,
2013-08-13 04:40:00,63.1,56.5,29.75,WSW,239,0.0,0.0,79,0.00,,CLR,0.00,0.00,VWS V14.01,2013-08-13 08:40:00,
2013-08-13 04:42:00,63.1,56.5,29.75,WSW,239,0.0,0.0,79,0.00,,CLR,0.00,0.00,VWS V14.01,2013-08-13 08:42:00,
2013-08-13 04:43:00,63.1,56.5,29.75,WSW,239,0.0,0.0,79,0.00,,CLR,0.00,0.00,VWS V14.01,2013-08-13 08:43:00,
2013-08-13 04:44:00,62.9,56.3,29.75,SW,232,0.0,0.0,79,0.00,,CLR,0.00,0.00,VWS V14.01,2013-08-13 08:44:00,
2013-08-13 04:45:00,62.9,56.3,29.75,WSW,239,0.0,0.0,79,0.00,,CLR,0.00,0.00,VWS V14.01,2013-08-13 08:45:00,
2013-08-13 04:47:00,62.9,56.3,29.74,WSW,239,0.0,0.0,79,0.00,,CLR,0.00,0.00,VWS V14.01,2013-08-13 08:47:00,
2013-08-13 04:48:00,62.9,56.3,29.74,WSW,239,0.0,0.0,79,0.00,,CLR,0.00,0.00,VWS V14.01,2013-08-13 08:48:00,
2013-08-13 04:49:00,62.9,56.3,29.74,WSW,239,0.0,0.0,79,0.00,,CLR,0.00,0.00,VWS V14.01,2013-08-13 08:49:00,
2013-08-13 04:51:00,62.9,56.6,29.74,WSW,239,0.0,0.0,80,0.00,,CLR,0.00,0.00,VWS V14.01,2013-08-13 08:51:00,
2013-08-13 04:53:00,62.7,56.5,29.74,WSW,239,0.0,0.0,80,0.00,,CLR,0.00,0.00,VWS V14.01,2013-08-13 08:53:00,
2013-08-13 04:54:00,62.7,56.5,29.74,WSW,239,0.0,0.0,80,0.00,,CLR,0.00,0.00,VWS V14.01,2013-08-13 08:54:00,
2013-08-13 04:56:00,62.7,56.5,29.74,WSW,239,0.0,0.0,80,0.00,,CLR,0.00,0.00,VWS V14.01,2013-08-13 08:56:00,
2013-08-13 04:58:00,62.7,56.5,29.74,WSW,239,0.0,0.0,80,0.00,,CLR,0.00,0.00,VWS V14.01,2013-08-13 08:58:00,
2013-08-13 04:59:00,62.7,56.5,29.74,WSW,239,0.0,0.0,80,0.00,,CLR,0.00,0.00,VWS V14.01,2013-08-13 08:59:00,
2013-08-13 05:00:00,62.6,56.3,29.74,WSW,239,0.0,0.0,80,0.00,,CLR,0.00,0.00,VWS V14.01,2013-08-13 09:00:00,
2013-08-13 05:01:00,62.6,56.7,29.74,WSW,239,0.0,0.0,81,0.00,,CLR,0.00,0.00,VWS V14.01,2013-08-13 09:01:00,
2013-08-13 05:04:00,62.6,56.7,29.74,WSW,239,0.0,0.0,81,0.00,,CLR,0.00,0.00,VWS V14.01,2013-08-13 09:04:00,
2013-08-13 05:05:00,62.6,56.7,29.74,WSW,239,0.0,0.0,81,0.00,,CLR,0.00,0.00,VWS V14.01,2013-08-13 09:05:00,
2013-08-13 05:07:00,62.6,57.0,29.74,WSW,239,0.0,0.0,82,0.00,,CLR,0.00,0.00,VWS V14.01,2013-08-13 09:07:00,
2013-08-13 05:09:00,62.4,56.8,29.74,WSW,239,0.0,0.0,82,0.00,,CLR,0.00,0.00,VWS V14.01,2013-08-13 09:09:00,
2013-08-13 05:10:00,62.4,56.8,29.74,WSW,239,0.0,0.0,82,0.00,,CLR,0.00,0.00,VWS V14.01,2013-08-13 09:10:00,
2013-08-13 05:11:00,62.4,57.2,29.74,WSW,239,0.0,0.0,83,0.00,,CLR,0.00,0.00,VWS V14.01,2013-08-13 09:11:00,
2013-08-13 05:12:00,62.4,57.2,29.74,WSW,239,0.0,0.0,83,0.00,,CLR,0.00,0.00,VWS V14.01,2013-08-13 09:12:00,
2013-08-13 05:15:00,62.3,57.1,29.74,WSW,239,0.0,0.0,83,0.00,,CLR,0.00,0.00,VWS V14.01,2013-08-13 09:15:00,
2013-08-13 05:16:00,62.3,57.4,29.74,WSW,239,0.0,0.0,84,0.00,,CLR,0.00,0.00,VWS V14.01,2013-08-13 09:16:00,
2013-08-13 05:17:00,62.3,57.4,29.74,WSW,239,0.0,0.0,84,0.00,,CLR,0.00,0.00,VWS V14.01,2013-08-13 09:17:00,
2013-08-13 05:21:00,62.1,57.2,29.74,WSW,239,0.0,0.0,84,0.00,,CLR,0.00,0.00,VWS V14.01,2013-08-13 09:21:00,
2013-08-13 05:22:00,62.1,56.9,29.74,WSW,239,0.0,0.0,83,0.00,,CLR,0.00,0.00,VWS V14.01,2013-08-13 09:22:00,
2013-08-13 05:23:00,62.1,56.9,29.74,WSW,239,0.0,0.0,83,0.00,,CLR,0.00,0.00,VWS V14.01,2013-08-13 09:23:00,
2013-08-13 05:26:00,62.0,57.1,29.74,WSW,239,0.0,0.0,84,0.00,,CLR,0.00,0.00,VWS V14.01,2013-08-13 09:26:00,
2013-08-13 05:27:00,62.0,57.1,29.74,WSW,239,0.0,0.0,84,0.00,,CLR,0.00,0.00,VWS V14.01,2013-08-13 09:27:00,
2013-08-13 05:28:00,62.0,57.1,29.74,WSW,239,0.0,0.0,84,0.00,,CLR,0.00,0.00,VWS V14.01,2013-08-13 09:28:00,
2013-08-13 05:30:00,62.0,57.1,29.74,WSW,239,0.0,0.0,84,0.00,,OVC050,0.00,0.00,VWS V14.01,2013-08-13 09:30:00,
2013-08-13 05:31:00,62.0,57.1,29.74,WSW,239,0.0,0.0,84,0.00,,CLR,0.00,0.00,VWS V14.01,2013-08-13 09:31:00,
2013-08-13 05:32:00,62.0,57.1,29.74,WSW,239,0.0,0.0,84,0.00,,CLR,0.00,0.00,VWS V14.01,2013-08-13 09:32:00,
2013-08-13 05:33:00,61.8,57.2,29.74,WSW,239,0.0,0.0,85,0.00,,CLR,0.00,0.00,VWS V14.01,2013-08-13 09:33:00,
2013-08-13 05:36:00,61.8,57.2,29.74,WSW,239,0.0,0.0,85,0.00,,CLR,0.00,0.00,VWS V14.01,2013-08-13 09:36:00,
2013-08-13 05:37:00,61.8,57.2,29.74,WSW,239,0.0,0.0,85,0.00,,CLR,0.00,0.00,VWS V14.01,2013-08-13 09:37:00,
2013-08-13 05:38:00,61.8,57.2,29.74,WSW,239,0.0,0.0,85,0.00,,CLR,0.00,0.00,VWS V14.01,2013-08-13 09:38:00,
2013-08-13 05:39:00,61.8,57.2,29.74,WSW,239,0.0,0.0,85,0.00,,CLR,0.00,0.00,VWS V14.01,2013-08-13 09:39:00,
2013-08-13 05:41:00,61.6,57.0,29.74,WSW,239,0.0,0.0,85,0.00,,CLR,0.00,0.00,VWS V14.01,2013-08-13 09:41:00,
2013-08-13 05:42:00,61.6,57.0,29.74,WSW,239,0.0,0.0,85,0.00,,CLR,0.00,0.00,VWS V14.01,2013-08-13 09:42:00,
2013-08-13 05:43:00,61.6,57.0,29.74,WSW,239,0.0,0.0,85,0.00,,CLR,0.00,0.00,VWS V14.01,2013-08-13 09:43:00,
2013-08-13 05:44:00,61.6,57.0,29.74,WSW,239,0.0,0.0,85,0.00,,CLR,0.00,0.00,VWS V14.01,2013-08-13 09:44:00,
2013-08-13 05:46:00,61.6,57.4,29.74,WSW,239,0.0,0.0,86,0.00,,CLR,0.00,0.00,VWS V14.01,2013-08-13 09:46:00,
2013-08-13 05:48:00,61.6,57.4,29.74,WSW,239,0.0,0.0,86,0.00,,CLR,0.00,0.00,VWS V14.01,2013-08-13 09:48:00,
2013-08-13 05:50:00,61.6,57.4,29.74,WSW,239,0.0,0.0,86,0.00,,CLR,0.00,0.00,VWS V14.01,2013-08-13 09:50:00,
2013-08-13 05:52:00,61.6,57.4,29.74,WSW,239,0.0,0.0,86,0.00,,CLR,0.00,0.00,VWS V14.01,2013-08-13 09:52:00,
2013-08-13 05:53:00,61.6,57.4,29.74,WSW,239,0.0,0.0,86,0.00,,CLR,0.00,0.00,VWS V14.01,2013-08-13 09:53:00,
2013-08-13 05:54:00,61.6,57.4,29.74,WSW,239,0.0,0.0,86,0.00,,CLR,0.00,0.00,VWS V14.01,2013-08-13 09:54:00,
2013-08-13 05:56:00,61.5,57.3,29.74,WSW,239,0.0,0.0,86,0.00,,CLR,0.00,0.00,VWS V14.01,2013-08-13 09:56:00,
2013-08-13 05:57:00,61.5,57.3,29.74,WSW,239,0.0,0.0,86,0.00,,CLR,0.00,0.00,VWS V14.01,2013-08-13 09:57:00,
2013-08-13 05:59:00,61.5,57.3,29.74,WSW,239,0.0,0.0,86,0.00,,CLR,0.00,0.00,VWS V14.01,2013-08-13 09:59:00,
2013-08-13 06:00:00,61.5,57.0,29.73,WSW,239,0.0,0.0,85,0.00,,OVC050,0.00,0.00,VWS V14.01,2013-08-13 10:00:00,
2013-08-13 06:01:00,61.5,57.0,29.73,WSW,239,0.0,0.0,85,0.00,,CLR,0.00,0.00,VWS V14.01,2013-08-13 10:01:00,
2013-08-13 06:02:00,61.5,57.0,29.73,WSW,239,0.0,0.0,85,0.00,,CLR,0.00,0.00,VWS V14.01,2013-08-13 10:02:00,
2013-08-13 06:04:00,61.5,57.0,29.73,WSW,239,0.0,0.0,85,0.00,,CLR,0.00,7.00,VWS V14.01,2013-08-13 10:04:00,
2013-08-13 06:07:00,61.5,57.0,29.73,WSW,239,0.0,0.0,85,0.00,,CLR,0.00,7.00,VWS V14.01,2013-08-13 10:07:00,
2013-08-13 06:08:00,61.5,57.0,29.73,WSW,239,0.0,0.0,85,0.00,,CLR,0.00,12.00,VWS V14.01,2013-08-13 10:08:00,
2013-08-13 06:09:00,61.5,57.0,29.73,WSW,239,0.0,0.0,85,0.00,,CLR,0.00,12.00,VWS V14.01,2013-08-13 10:09:00,
2013-08-13 06:10:00,61.5,57.0,29.73,WSW,239,0.0,0.0,85,0.00,,CLR,0.00,12.00,VWS V14.01,2013-08-13 10:10:00,
2013-08-13 06:12:00,61.6,57.0,29.73,WSW,239,0.0,0.0,85,0.00,,CLR,0.00,14.00,VWS V14.01,2013-08-13 10:12:00,
2013-08-13 06:14:00,61.6,57.4,29.73,WSW,239,0.0,0.0,86,0.00,,CLR,0.00,14.00,VWS V14.01,2013-08-13 10:14:00,
2013-08-13 06:15:00,61.6,57.4,29.73,WSW,239,0.0,0.0,86,0.00,,CLR,0.00,14.00,VWS V14.01,2013-08-13 10:15:00,
2013-08-13 06:17:00,61.6,57.4,29.72,WSW,239,0.0,0.0,86,0.00,,CLR,0.00,16.00,VWS V14.01,2013-08-13 10:17:00,
2013-08-13 06:19:00,61.6,57.4,29.72,WSW,239,0.0,0.0,86,0.00,,CLR,0.00,16.00,VWS V14.01,2013-08-13 10:19:00,
2013-08-13 06:20:00,61.6,57.4,29.72,WSW,239,0.0,0.0,86,0.00,,CLR,0.00,21.00,VWS V14.01,2013-08-13 10:20:00,
2013-08-13 06:21:00,61.6,57.4,29.72,WSW,239,0.0,0.0,86,0.00,,CLR,0.00,21.00,VWS V14.01,2013-08-13 10:21:00,
2013-08-13 06:23:00,61.8,57.9,29.72,WSW,239,0.0,0.0,87,0.00,,CLR,0.00,21.00,VWS V14.01,2013-08-13 10:23:00,
2013-08-13 06:25:00,61.8,57.9,29.72,WSW,239,0.0,0.0,87,0.00,,CLR,0.00,25.00,VWS V14.01,2013-08-13 10:25:00,
2013-08-13 06:27:00,61.8,57.9,29.72,WSW,239,0.0,0.0,87,0.00,,CLR,0.00,25.00,VWS V14.01,2013-08-13 10:27:00,
2013-08-13 06:28:00,61.8,58.2,29.72,WSW,239,0.0,0.0,88,0.00,,CLR,0.00,25.00,VWS V14.01,2013-08-13 10:28:00,
2013-08-13 06:30:00,61.8,58.2,29.72,WSW,239,0.0,0.0,88,0.00,,CLR,0.00,25.00,VWS V14.01,2013-08-13 10:30:00,
2013-08-13 06:32:00,62.0,58.7,29.73,WSW,239,0.0,0.0,89,0.00,,CLR,0.00,25.00,VWS V14.01,2013-08-13 10:32:00,
2013-08-13 06:33:00,62.0,58.7,29.73,WSW,239,0.0,0.0,89,0.00,,CLR,0.00,28.00,VWS V14.01,2013-08-13 10:33:00,
2013-08-13 06:35:00,62.0,58.7,29.73,WSW,239,0.0,0.0,89,0.00,,CLR,0.00,28.00,VWS V14.01,2013-08-13 10:35:00,
2013-08-13 06:36:00,62.0,58.7,29.73,WSW,239,0.0,0.0,89,0.00,,CLR,0.00,28.00,VWS V14.01,2013-08-13 10:36:00,
2013-08-13 06:38:00,62.0,58.7,29.73,WSW,239,0.0,0.0,89,0.00,,CLR,0.00,35.00,VWS V14.01,2013-08-13 10:38:00,
2013-08-13 06:41:00,62.0,58.7,29.73,SW,230,0.0,0.0,89,0.00,,CLR,0.00,46.00,VWS V14.01,2013-08-13 10:41:00,
2013-08-13 06:43:00,62.0,58.7,29.73,WSW,239,0.0,0.0,89,0.00,,CLR,0.00,46.00,VWS V14.01,2013-08-13 10:43:00,
2013-08-13 06:44:00,62.0,58.7,29.73,WSW,239,0.0,0.0,89,0.00,,CLR,0.00,46.00,VWS V14.01,2013-08-13 10:44:00,
2013-08-13 06:46:00,62.0,58.7,29.73,WSW,239,0.0,0.0,89,0.00,,CLR,0.00,49.00,VWS V14.01,2013-08-13 10:46:00,
2013-08-13 06:47:00,62.0,58.7,29.73,WSW,239,0.0,0.0,89,0.00,,CLR,0.00,49.00,VWS V14.01,2013-08-13 10:47:00,
2013-08-13 06:48:00,62.0,58.7,29.73,WSW,239,0.0,0.0,89,0.00,,CLR,0.00,49.00,VWS V14.01,2013-08-13 10:48:00,
2013-08-13 06:49:00,62.0,58.7,29.73,WSW,239,0.0,0.0,89,0.00,,CLR,0.00,49.00,VWS V14.01,2013-08-13 10:49:00,
2013-08-13 06:51:00,62.1,59.1,29.73,WSW,239,0.0,0.0,90,0.00,,CLR,0.00,53.00,VWS V14.01,2013-08-13 10:51:00,
2013-08-13 06:52:00,62.1,58.8,29.73,WSW,239,0.0,0.0,89,0.00,,CLR,0.00,53.00,VWS V14.01,2013-08-13 10:52:00,
2013-08-13 06:53:00,62.1,59.1,29.73,WSW,239,0.0,0.0,90,0.00,,CLR,0.00,53.00,VWS V14.01,2013-08-13 10:53:00,
2013-08-13 06:55:00,62.1,59.1,29.73,WSW,239,0.0,0.0,90,0.00,,CLR,0.00,49.00,VWS V14.01,2013-08-13 10:55:00,
2013-08-13 06:56:00,62.1,59.1,29.73,WSW,239,0.0,0.0,90,0.00,,CLR,0.00,49.00,VWS V14.01,2013-08-13 10:56:00,
2013-08-13 06:58:00,62.1,59.1,29.73,WSW,239,0.0,0.0,90,0.00,,CLR,0.00,49.00,VWS V14.01,2013-08-13 10:58:00,
2013-08-13 07:00:00,62.1,59.1,29.73,WSW,239,0.0,0.0,90,0.00,,OVC050,0.00,62.00,VWS V14.01,2013-08-13 11:00:00,
2013-08-13 07:01:00,62.1,59.1,29.73,WSW,239,0.0,0.0,90,0.00,,CLR,0.00,48.00,VWS V14.01,2013-08-13 11:01:00,
2013-08-13 07:03:00,62.1,58.8,29.73,WSW,239,0.0,0.0,89,0.00,,CLR,0.00,72.00,VWS V14.01,2013-08-13 11:03:00,
2013-08-13 07:04:00,62.1,58.8,29.73,WSW,239,0.0,0.0,89,0.00,,CLR,0.00,72.00,VWS V14.01,2013-08-13 11:04:00,
2013-08-13 07:06:00,62.1,58.8,29.73,WSW,239,0.0,0.0,89,0.00,,CLR,0.00,69.00,VWS V14.01,2013-08-13 11:06:00,
2013-08-13 07:07:00,62.1,58.8,29.73,WSW,239,0.0,0.0,89,0.00,,CLR,0.00,65.00,VWS V14.01,2013-08-13 11:07:00,
2013-08-13 07:09:00,62.1,58.8,29.73,WSW,239,0.0,0.0,89,0.00,,CLR,0.00,60.00,VWS V14.01,2013-08-13 11:09:00,
2013-08-13 07:11:00,62.1,58.8,29.73,WSW,237,0.0,0.0,89,0.00,,CLR,0.00,56.00,VWS V14.01,2013-08-13 11:11:00,
2013-08-13 07:12:00,62.1,58.5,29.73,WSW,237,0.0,0.0,88,0.00,,CLR,0.00,56.00,VWS V14.01,2013-08-13 11:12:00,
2013-08-13 07:14:00,62.1,58.5,29.73,WSW,239,0.0,0.0,88,0.00,,CLR,0.00,58.00,VWS V14.01,2013-08-13 11:14:00,
2013-08-13 07:16:00,62.1,58.5,29.73,WSW,237,0.0,0.0,88,0.00,,CLR,0.00,63.00,VWS V14.01,2013-08-13 11:16:00,
2013-08-13 07:18:00,62.1,58.5,29.73,WSW,237,0.0,0.0,88,0.00,,CLR,0.00,74.00,VWS V14.01,2013-08-13 11:18:00,
2013-08-13 07:19:00,62.1,58.5,29.73,WSW,237,0.0,0.0,88,0.00,,CLR,0.00,77.00,VWS V14.01,2013-08-13 11:19:00,
2013-08-13 07:21:00,62.3,58.4,29.73,WSW,237,0.0,0.0,87,0.00,,CLR,0.00,91.00,VWS V14.01,2013-08-13 11:21:00,
2013-08-13 07:22:00,62.3,58.4,29.73,WSW,237,0.0,0.0,87,0.00,,CLR,0.00,91.00,VWS V14.01,2013-08-13 11:22:00,
2013-08-13 07:23:00,62.3,58.4,29.73,WSW,237,0.0,0.0,87,0.00,,CLR,0.00,86.00,VWS V14.01,2013-08-13 11:23:00,
2013-08-13 07:24:00,62.3,58.4,29.73,WSW,239,0.0,1.0,87,0.00,,CLR,0.00,84.00,VWS V14.01,2013-08-13 11:24:00,
2013-08-13 07:25:00,62.3,58.4,29.73,WSW,237,0.0,1.0,87,0.00,,CLR,0.00,84.00,VWS V14.01,2013-08-13 11:25:00,
2013-08-13 07:27:00,62.4,58.5,29.73,WSW,237,0.0,1.0,87,0.00,,CLR,0.00,84.00,VWS V14.01,2013-08-13 11:27:00,
2013-08-13 07:29:00,62.4,58.5,29.73,WSW,237,0.0,1.0,87,0.00,,CLR,0.00,88.00,VWS V14.01,2013-08-13 11:29:00,
2013-08-13 07:30:00,62.4,58.5,29.73,WSW,237,0.0,1.0,87,0.00,,CLR,0.00,91.00,VWS V14.01,2013-08-13 11:30:00,
2013-08-13 07:32:00,62.6,58.7,29.73,WSW,237,0.0,0.0,87,0.00,,CLR,0.00,99.00,VWS V14.01,2013-08-13 11:32:00,
2013-08-13 07:34:00,62.6,58.7,29.73,WSW,237,0.0,0.0,87,0.00,,CLR,0.00,100.00,VWS V14.01,2013-08-13 11:34:00,
2013-08-13 07:35:00,62.7,58.8,29.73,WSW,237,0.0,0.0,87,0.00,,CLR,0.00,106.00,VWS V14.01,2013-08-13 11:35:00,
2013-08-13 07:37:00,62.7,58.8,29.73,WSW,237,0.0,0.0,87,0.00,,CLR,0.00,109.00,VWS V14.01,2013-08-13 11:37:00,
2013-08-13 07:38:00,62.9,59.0,29.73,WSW,237,0.0,1.0,87,0.00,,CLR,0.00,109.00,VWS V14.01,2013-08-13 11:38:00,
2013-08-13 07:40:00,62.9,59.0,29.73,SW,234,0.0,1.0,87,0.00,,CLR,0.00,118.00,VWS V14.01,2013-08-13 11:40:00,
2013-08-13 07:42:00,63.1,59.2,29.73,SW,234,0.0,1.0,87,0.00,,CLR,0.00,130.00,VWS V14.01,2013-08-13 11:42:00,
2013-08-13 07:43:00,63.1,59.2,29.73,SW,234,0.0,1.0,87,0.00,,CLR,0.00,139.00,VWS V14.01,2013-08-13 11:43:00,
2013-08-13 07:45:00,63.2,59.0,29.73,SW,233,0.0,1.0,86,0.00,,CLR,0.00,169.00,VWS V14.01,2013-08-13 11:45:00,
2013-08-13 07:46:00,63.2,59.0,29.73,SW,233,0.0,1.0,86,0.00,,CLR,0.00,155.00,VWS V14.01,2013-08-13 11:46:00,
2013-08-13 07:47:00,63.4,59.2,29.73,SW,233,1.0,2.0,86,0.00,,CLR,0.00,174.00,VWS V14.01,2013-08-13 11:47:00,
2013-08-13 07:48:00,63.4,59.2,29.73,SW,233,0.0,2.0,86,0.00,,CLR,0.00,181.00,VWS V14.01,2013-08-13 11:48:00,
2013-08-13 07:50:00,63.5,58.9,29.73,SW,233,0.0,2.0,85,0.00,,CLR,0.00,128.00,VWS V14.01,2013-08-13 11:50:00,
2013-08-13 07:51:00,63.5,58.9,29.73,SW,233,0.0,2.0,85,0.00,,CLR,0.00,150.00,VWS V14.01,2013-08-13 11:51:00,
2013-08-13 07:52:00,63.7,59.1,29.73,SW,233,0.0,2.0,85,0.00,,CLR,0.00,139.00,VWS V14.01,2013-08-13 11:52:00,
2013-08-13 07:53:00,63.7,59.1,29.73,SW,233,0.0,2.0,85,0.00,,CLR,0.00,139.00,VWS V14.01,2013-08-13 11:53:00,
2013-08-13 07:55:00,63.9,59.3,29.73,SW,233,0.0,2.0,85,0.00,,CLR,0.00,144.00,VWS V14.01,2013-08-13 11:55:00,
2013-08-13 07:56:00,63.9,59.3,29.73,SW,233,0.0,2.0,85,0.00,,CLR,0.00,157.00,VWS V14.01,2013-08-13 11:56:00,
2013-08-13 07:58:00,64.0,59.4,29.73,SW,233,0.0,2.0,85,0.00,,CLR,0.00,174.00,VWS V14.01,2013-08-13 11:58:00,
2013-08-13 08:00:00,64.2,59.6,29.73,SW,233,0.0,2.0,85,0.00,,CLR,0.00,204.00,VWS V14.01,2013-08-13 12:00:00,
2013-08-13 08:01:00,64.3,59.7,29.73,SW,233,0.0,2.0,85,0.00,,CLR,0.00,215.00,VWS V14.01,2013-08-13 12:01:00,
2013-08-13 08:03:00,64.5,59.9,29.73,SW,233,0.0,0.0,85,0.00,,CLR,0.00,236.00,VWS V14.01,2013-08-13 12:03:00,
2013-08-13 08:06:00,64.7,60.1,29.73,SW,233,0.0,0.0,85,0.00,,CLR,0.00,234.00,VWS V14.01,2013-08-13 12:06:00,
2013-08-13 08:08:00,65.0,60.0,29.73,South,169,0.0,0.0,84,0.00,,CLR,0.00,253.00,VWS V14.01,2013-08-13 12:08:00,
2013-08-13 08:09:00,65.0,60.0,29.73,South,169,0.0,0.0,84,0.00,,CLR,0.00,253.00,VWS V14.01,2013-08-13 12:09:00,
2013-08-13 08:11:00,65.3,60.0,29.73,SSE,167,0.0,1.0,83,0.00,,CLR,0.00,218.00,VWS V14.01,2013-08-13 12:11:00,
2013-08-13 08:14:00,65.6,60.6,29.73,SSE,161,0.0,1.0,84,0.00,,CLR,0.00,262.00,VWS V14.01,2013-08-13 12:14:00,
2013-08-13 08:16:00,65.8,60.2,29.72,SSE,161,0.0,1.0,82,0.00,,CLR,0.00,216.00,VWS V14.01,2013-08-13 12:16:00,
2013-08-13 08:17:00,66.0,60.3,29.72,SSW,206,2.0,2.0,82,0.00,,CLR,0.00,204.00,VWS V14.01,2013-08-13 12:17:00,
2013-08-13 08:19:00,66.1,60.1,29.72,SE,143,1.0,2.0,81,0.00,,CLR,0.00,225.00,VWS V14.01,2013-08-13 12:19:00,
2013-08-13 08:20:00,66.1,60.1,29.72,South,181,0.0,2.0,81,0.00,,CLR,0.00,245.00,VWS V14.01,2013-08-13 12:20:00,
2013-08-13 08:21:00,66.3,60.0,29.72,SSW,193,3.0,6.0,80,0.00,,CLR,0.00,252.00,VWS V14.01,2013-08-13 12:21:00,
2013-08-13 08:22:00,66.3,60.0,29.72,SSW,202,3.0,6.0,80,0.00,,CLR,0.00,211.00,VWS V14.01,2013-08-13 12:22:00,
2013-08-13 08:25:00,66.6,59.9,29.72,SSE,160,0.0,6.0,79,0.00,,CLR,0.00,169.00,VWS V14.01,2013-08-13 12:25:00,
2013-08-13 08:27:00,66.8,60.4,29.72,SSE,147,0.0,6.0,80,0.00,,CLR,0.00,192.00,VWS V14.01,2013-08-13 12:27:00,
2013-08-13 08:28:00,66.8,60.1,29.72,SSE,147,0.0,6.0,79,0.00,,CLR,0.00,202.00,VWS V14.01,2013-08-13 12:28:00,
2013-08-13 08:30:00,66.9,60.2,29.72,SSE,147,0.0,6.0,79,0.00,,CLR,0.00,218.00,VWS V14.01,2013-08-13 12:30:00,
2013-08-13 08:32:00,67.1,60.7,29.72,SE,145,0.0,0.0,80,0.00,,CLR,0.00,264.00,VWS V14.01,2013-08-13 12:32:00,
2013-08-13 08:33:00,67.1,60.7,29.72,SE,145,0.0,0.0,80,0.00,,CLR,0.00,232.00,VWS V14.01,2013-08-13 12:33:00,
2013-08-13 08:35:00,67.3,60.9,29.72,SE,137,0.0,0.0,80,0.00,,CLR,0.00,274.00,VWS V14.01,2013-08-13 12:35:00,
2013-08-13 08:38:00,67.4,60.7,29.72,SE,145,0.0,1.0,79,0.00,,CLR,0.00,262.00,VWS V14.01,2013-08-13 12:38:00,
2013-08-13 08:39:00,67.4,61.0,29.72,SE,145,1.0,1.0,80,0.00,,CLR,0.00,310.00,VWS V14.01,2013-08-13 12:39:00,
2013-08-13 08:40:00,67.6,60.9,29.72,SSE,148,0.0,1.0,79,0.00,,CLR,0.00,310.00,VWS V14.01,2013-08-13 12:40:00,
2013-08-13 08:43:00,67.8,60.7,29.72,SSE,167,0.0,2.0,78,0.00,,CLR,0.00,223.00,VWS V14.01,2013-08-13 12:43:00,
2013-08-13 08:44:00,67.8,60.7,29.72,SSE,167,0.0,2.0,78,0.00,,CLR,0.00,223.00,VWS V14.01,2013-08-13 12:44:00,
2013-08-13 08:45:00,67.8,61.1,29.72,SSE,167,0.0,2.0,79,0.00,,CLR,0.00,246.00,VWS V14.01,2013-08-13 12:45:00,
2013-08-13 08:46:00,67.8,61.1,29.71,SSE,160,0.0,2.0,79,0.00,,CLR,0.00,276.00,VWS V14.01,2013-08-13 12:46:00,
2013-08-13 08:49:00,67.9,60.8,29.71,SSE,162,0.0,2.0,78,0.00,,CLR,0.00,324.00,VWS V14.01,2013-08-13 12:49:00,
2013-08-13 08:50:00,67.9,61.2,29.71,SSE,157,0.0,2.0,79,0.00,,CLR,0.00,370.00,VWS V14.01,2013-08-13 12:50:00,
2013-08-13 08:51:00,68.1,61.0,29.71,SSE,158,0.0,2.0,78,0.00,,CLR,0.00,324.00,VWS V14.01,2013-08-13 12:51:00,
2013-08-13 08:54:00,68.3,61.2,29.71,South,174,0.0,2.0,78,0.00,,CLR,0.00,375.00,VWS V14.01,2013-08-13 12:54:00,
2013-08-13 08:55:00,68.3,61.5,29.71,South,174,0.0,2.0,79,0.00,,CLR,0.00,463.00,VWS V14.01,2013-08-13 12:55:00,
2013-08-13 08:56:00,68.4,62.0,29.71,South,174,0.0,2.0,80,0.00,,CLR,0.00,473.00,VWS V14.01,2013-08-13 12:56:00,
2013-08-13 08:57:00,68.4,61.3,29.71,SSE,161,0.0,2.0,78,0.00,,CLR,0.00,457.00,VWS V14.01,2013-08-13 12:57:00,
2013-08-13 08:59:00,68.8,61.3,29.71,SSE,161,0.0,2.0,77,0.00,,CLR,0.00,452.00,VWS V14.01,2013-08-13 12:59:00,
2013-08-13 09:00:00,68.8,61.7,29.71,SSE,161,0.0,2.0,78,0.00,,FEW085,0.00,452.00,VWS V14.01,2013-08-13 13:00:00,
2013-08-13 09:01:00,68.9,61.8,29.71,SSE,161,0.0,2.0,78,0.00,,FEW085,0.00,282.00,VWS V14.01,2013-08-13 13:01:00,
2013-08-13 09:03:00,69.1,61.6,29.71,SSE,161,0.0,0.0,77,0.00,,FEW085,0.00,283.00,VWS V14.01,2013-08-13 13:03:00,
2013-08-13 09:05:00,69.1,61.2,29.71,SSE,161,0.0,0.0,76,0.00,,FEW085,0.00,308.00,VWS V14.01,2013-08-13 13:05:00,
2013-08-13 09:06:00,69.1,60.8,29.71,SSE,158,0.0,0.0,75,0.00,,FEW085,0.00,338.00,VWS V14.01,2013-08-13 13:06:00,
2013-08-13 09:09:00,69.3,61.0,29.71,SSE,158,0.0,0.0,75,0.00,,FEW085,0.00,345.00,VWS V14.01,2013-08-13 13:09:00,
2013-08-13 09:10:00,69.3,61.0,29.71,SSE,158,0.0,0.0,75,0.00,,FEW085,0.00,329.00,VWS V14.01,2013-08-13 13:10:00,
2013-08-13 09:11:00,69.4,61.5,29.71,SSE,158,0.0,0.0,76,0.00,,FEW085,0.00,322.00,VWS V14.01,2013-08-13 13:11:00,
2013-08-13 09:14:00,69.6,61.3,29.71,SE,145,0.0,0.0,75,0.00,,FEW085,0.00,326.00,VWS V14.01,2013-08-13 13:14:00,
2013-08-13 09:15:00,69.6,61.3,29.71,SE,145,0.0,0.0,75,0.00,,FEW085,0.00,310.00,VWS V14.01,2013-08-13 13:15:00,
2013-08-13 09:16:00,69.6,61.3,29.70,SE,145,0.0,0.0,75,0.00,,FEW085,0.00,308.00,VWS V14.01,2013-08-13 13:16:00,
2013-08-13 09:18:00,69.8,61.9,29.70,SE,145,0.0,0.0,76,0.00,,FEW085,0.00,303.00,VWS V14.01,2013-08-13 13:18:00,
2013-08-13 09:19:00,69.8,61.5,29.70,SE,145,0.0,0.0,75,0.00,,FEW085,0.00,320.00,VWS V14.01,2013-08-13 13:19:00,
2013-08-13 09:20:00,69.9,61.6,29.70,SSE,160,0.0,0.0,75,0.00,,FEW085,0.00,306.00,VWS V14.01,2013-08-13 13:20:00,
2013-08-13 09:21:00,69.9,61.6,29.70,SSE,160,0.0,0.0,75,0.00,,FEW085,0.00,306.00,VWS V14.01,2013-08-13 13:21:00,
2013-08-13 09:24:00,70.1,62.6,29.70,SSE,160,0.0,0.0,77,0.00,,FEW085,0.00,341.00,VWS V14.01,2013-08-13 13:24:00,
2013-08-13 09:26:00,70.1,62.2,29.70,SSE,160,0.0,0.0,76,0.00,,FEW085,0.00,333.00,VWS V14.01,2013-08-13 13:26:00,
2013-08-13 09:29:00,70.3,62.8,29.70,SSE,160,0.0,0.0,77,0.00,,FEW085,0.00,296.00,VWS V14.01,2013-08-13 13:29:00,
2013-08-13 09:30:00,70.3,62.8,29.70,SSE,160,0.0,0.0,77,0.00,,FEW085,0.00,299.00,VWS V14.01,2013-08-13 13:30:00,
2013-08-13 09:31:00,70.4,62.5,29.69,SSE,158,0.0,3.0,76,0.00,,FEW085,0.00,292.00,VWS V14.01,2013-08-13 13:31:00,
2013-08-13 09:32:00,70.4,61.7,29.69,SSE,158,0.0,3.0,74,0.00,,FEW085,0.00,290.00,VWS V14.01,2013-08-13 13:32:00,
2013-08-13 09:34:00,70.6,62.7,29.69,SSE,158,0.0,0.0,76,0.00,,FEW085,0.00,269.00,VWS V14.01,2013-08-13 13:34:00,
2013-08-13 09:35:00,70.6,62.7,29.69,SSE,158,0.0,0.0,76,0.00,,FEW085,0.00,264.00,VWS V14.01,2013-08-13 13:35:00,
2013-08-13 09:37:00,70.4,61.7,29.69,SSE,158,0.0,0.0,74,0.00,,FEW085,0.00,267.00,VWS V14.01,2013-08-13 13:37:00,
2013-08-13 09:38:00,70.6,62.3,29.69,ESE,121,0.0,7.0,75,0.00,,FEW085,0.00,267.00,VWS V14.01,2013-08-13 13:38:00,
2013-08-13 09:39:00,70.6,61.9,29.69,SE,124,0.0,7.0,74,0.00,,FEW085,0.00,304.00,VWS V14.01,2013-08-13 13:39:00,
2013-08-13 09:40:00,70.6,61.9,29.69,SE,124,0.0,7.0,74,0.00,,FEW085,0.00,304.00,VWS V14.01,2013-08-13 13:40:00,
2013-08-13 09:43:00,70.8,63.2,29.69,SE,124,0.0,7.0,77,0.00,,FEW085,0.00,373.00,VWS V14.01,2013-08-13 13:43:00,
2013-08-13 09:44:00,70.9,63.0,29.69,SE,124,0.0,7.0,76,0.00,,FEW085,0.00,315.00,VWS V14.01,2013-08-13 13:44:00,
2013-08-13 09:45:00,70.9,63.3,29.69,SE,124,0.0,7.0,77,0.00,,FEW085,0.00,334.00,VWS V14.01,2013-08-13 13:45:00,
2013-08-13 09:48:00,70.9,62.6,29.69,SE,127,0.0,7.0,75,0.00,,FEW085,0.00,359.00,VWS V14.01,2013-08-13 13:48:00,
2013-08-13 09:49:00,71.1,63.5,29.69,SE,127,0.0,7.0,77,0.00,,FEW085,0.00,359.00,VWS V14.01,2013-08-13 13:49:00,
2013-08-13 09:50:00,71.1,63.2,29.69,East,86,0.0,7.0,76,0.00,,FEW085,0.00,380.00,VWS V14.01,2013-08-13 13:50:00,
2013-08-13 09:53:00,71.1,62.8,29.69,South,179,0.0,7.0,75,0.00,,FEW085,0.00,371.00,VWS V14.01,2013-08-13 13:53:00,
2013-08-13 09:54:00,71.3,63.0,29.69,SSW,199,0.0,7.0,75,0.00,,FEW085,0.00,348.00,VWS V14.01,2013-08-13 13:54:00,
2013-08-13 09:55:00,71.3,62.6,29.69,SSW,198,1.0,7.0,74,0.00,,FEW085,0.00,398.00,VWS V14.01,2013-08-13 13:55:00,
2013-08-13 09:58:00,71.5,63.5,29.69,SSW,196,0.0,7.0,76,0.00,,FEW085,0.00,378.00,VWS V14.01,2013-08-13 13:58:00,
2013-08-13 09:59:00,71.6,63.3,29.69,SSW,195,3.0,7.0,75,0.00,,FEW085,0.00,405.00,VWS V14.01,2013-08-13 13:59:00,
2013-08-13 10:00:00,71.6,63.6,29.69,SSW,193,0.0,7.0,76,0.00,,FEW085,0.00,405.00,VWS V14.01,2013-08-13 14:00:00,
2013-08-13 10:04:00,71.8,63.5,29.69,SSW,206,0.0,6.0,75,0.00,,OVC085,0.00,380.00,VWS V14.01,2013-08-13 14:04:00,
2013-08-13 10:05:00,72.0,64.4,29.69,SSW,206,0.0,6.0,77,0.00,,OVC085,0.00,396.00,VWS V14.01,2013-08-13 14:05:00,
2013-08-13 10:06:00,72.1,64.5,29.69,WSW,243,0.0,6.0,77,0.00,,OVC085,0.00,410.00,VWS V14.01,2013-08-13 14:06:00,
2013-08-13 10:09:00,72.3,63.9,29.69,SSE,160,0.0,6.0,75,0.00,,OVC085,0.00,310.00,VWS V14.01,2013-08-13 14:09:00,
2013-08-13 10:10:00,72.3,63.9,29.69,SSE,160,0.0,6.0,75,0.00,,OVC085,0.00,310.00,VWS V14.01,2013-08-13 14:10:00,
2013-08-13 10:11:00,72.3,63.6,29.69,SSW,212,2.0,6.0,74,0.00,,OVC085,0.00,338.00,VWS V14.01,2013-08-13 14:11:00,
2013-08-13 10:15:00,72.5,64.5,29.69,SSE,162,0.0,6.0,76,0.00,,OVC085,0.00,289.00,VWS V14.01,2013-08-13 14:15:00,
2013-08-13 10:16:00,72.5,63.8,29.70,SSE,162,0.0,6.0,74,0.00,,OVC085,0.00,282.00,VWS V14.01,2013-08-13 14:16:00,
2013-08-13 10:20:00,72.7,63.9,29.70,SSE,161,0.0,6.0,74,0.00,,OVC085,0.00,313.00,VWS V14.01,2013-08-13 14:20:00,
2013-08-13 10:21:00,72.7,63.9,29.70,SSE,150,0.0,6.0,74,0.00,,OVC085,0.00,313.00,VWS V14.01,2013-08-13 14:21:00,
2013-08-13 10:26:00,72.7,63.9,29.70,South,178,0.0,6.0,74,0.00,,OVC085,0.00,267.00,VWS V14.01,2013-08-13 14:26:00,
2013-08-13 10:27:00,72.8,64.4,29.70,South,178,0.0,6.0,75,0.00,,OVC085,0.00,222.00,VWS V14.01,2013-08-13 14:27:00,
2013-08-13 10:30:00,72.8,64.4,29.70,South,169,0.0,6.0,75,0.00,,OVC050,0.00,143.00,VWS V14.01,2013-08-13 14:30:00,
2013-08-13 10:31:00,72.8,64.8,29.70,South,169,0.0,6.0,76,0.00,,OVC085,0.00,188.00,VWS V14.01,2013-08-13 14:31:00,
2013-08-13 10:32:00,72.8,64.4,29.70,South,169,0.0,6.0,75,0.00,,OVC085,0.00,143.00,VWS V14.01,2013-08-13 14:32:00,
2013-08-13 10:36:00,72.8,64.0,29.70,SSW,208,0.0,1.0,74,0.00,,OVC085,0.00,95.00,VWS V14.01,2013-08-13 14:36:00,
2013-08-13 10:37:00,72.8,64.4,29.70,SSW,206,0.0,1.0,75,0.00,,OVC085,0.00,113.00,VWS V14.01,2013-08-13 14:37:00,
2013-08-13 10:41:00,72.7,63.9,29.70,SSE,161,0.0,1.0,74,0.00,,OVC085,0.00,169.00,VWS V14.01,2013-08-13 14:41:00,
2013-08-13 10:42:00,72.7,63.9,29.70,SSE,161,0.0,1.0,74,0.00,,OVC085,0.00,215.00,VWS V14.01,2013-08-13 14:42:00,
2013-08-13 10:43:00,72.7,64.3,29.70,SSE,161,0.0,1.0,75,0.00,,OVC085,0.00,216.00,VWS V14.01,2013-08-13 14:43:00,
2013-08-13 10:44:00,72.7,64.3,29.70,SSE,161,0.0,1.0,75,0.00,,OVC085,0.00,201.00,VWS V14.01,2013-08-13 14:44:00,
2013-08-13 10:46:00,72.5,64.5,29.70,SSE,157,0.0,1.0,76,0.00,,OVC085,0.00,169.00,VWS V14.01,2013-08-13 14:46:00,
2013-08-13 10:47:00,72.5,64.9,29.70,SSE,157,0.0,1.0,77,0.00,,OVC085,0.00,155.00,VWS V14.01,2013-08-13 14:47:00,
2013-08-13 10:48:00,72.5,64.9,29.70,SSE,157,0.0,1.0,77,0.00,,OVC085,0.00,141.00,VWS V14.01,2013-08-13 14:48:00,
2013-08-13 10:49:00,72.5,64.5,29.70,SSE,155,0.0,1.0,76,0.00,,OVC085,0.00,130.00,VWS V14.01,2013-08-13 14:49:00,
2013-08-13 10:51:00,72.5,64.5,29.70,South,179,0.0,1.0,76,0.00,,OVC085,0.00,135.00,VWS V14.01,2013-08-13 14:51:00,
2013-08-13 10:52:00,72.5,64.5,29.70,South,179,0.0,1.0,76,0.00,,OVC085,0.00,148.00,VWS V14.01,2013-08-13 14:52:00,
2013-08-13 10:53:00,72.3,64.3,29.70,NW,325,0.0,1.0,76,0.00,,OVC085,0.00,165.00,VWS V14.01,2013-08-13 14:53:00,
2013-08-13 10:55:00,72.3,63.9,29.70,East,93,0.0,3.0,75,0.00,,OVC085,0.00,206.00,VWS V14.01,2013-08-13 14:55:00,
2013-08-13 10:57:00,72.3,64.3,29.70,South,175,0.0,3.0,76,0.00,,OVC085,0.00,262.00,VWS V14.01,2013-08-13 14:57:00,
2013-08-13 10:58:00,72.3,64.3,29.70,West,281,0.0,3.0,76,0.00,,OVC085,0.00,282.00,VWS V14.01,2013-08-13 14:58:00,
2013-08-13 11:00:00,72.1,64.1,29.70,SSW,199,0.0,3.0,76,0.00,,OVC085,0.00,308.00,VWS V14.01,2013-08-13 15:00:00,
2013-08-13 11:02:00,72.1,63.8,29.70,SSE,147,0.0,0.0,75,0.00,,SCT050,0.00,299.00,VWS V14.01,2013-08-13 15:02:00,
2013-08-13 11:03:00,72.1,64.1,29.70,SSE,147,0.0,0.0,76,0.00,,SCT050,0.00,290.00,VWS V14.01,2013-08-13 15:03:00,
2013-08-13 11:06:00,72.1,64.5,29.70,SW,223,0.0,0.0,77,0.00,,SCT050,0.00,225.00,VWS V14.01,2013-08-13 15:06:00,
2013-08-13 11:07:00,72.1,64.5,29.70,South,184,0.0,0.0,77,0.00,,SCT050,0.00,201.00,VWS V14.01,2013-08-13 15:07:00,
2013-08-13 11:08:00,72.1,64.1,29.70,South,184,0.0,0.0,76,0.00,,SCT050,0.00,197.00,VWS V14.01,2013-08-13 15:08:00,
2013-08-13 11:09:00,72.1,64.5,29.70,SSW,200,0.0,1.0,77,0.00,,SCT050,0.00,195.00,VWS V14.01,2013-08-13 15:09:00,
2013-08-13 11:11:00,72.1,64.1,29.70,SSW,208,0.0,1.0,76,0.00,,SCT050,0.00,157.00,VWS V14.01,2013-08-13 15:11:00,
2013-08-13 11:13:00,72.1,64.5,29.70,SSW,209,0.0,1.0,77,0.00,,SCT050,0.00,118.00,VWS V14.01,2013-08-13 15:13:00,
2013-08-13 11:15:00,72.1,64.5,29.70,SSW,209,0.0,1.0,77,0.00,,SCT050,0.00,83.00,VWS V14.01,2013-08-13 15:15:00,
2013-08-13 11:16:00,72.1,64.5,29.71,SSW,209,0.0,1.0,77,0.00,,SCT050,0.00,60.00,VWS V14.01,2013-08-13 15:16:00,
2013-08-13 11:18:00,72.1,64.5,29.71,South,189,1.0,2.0,77,0.00,,SCT050,0.00,46.00,VWS V14.01,2013-08-13 15:18:00,
2013-08-13 11:19:00,72.1,64.5,29.71,SW,220,0.0,2.0,77,0.00,,SCT050,0.00,39.00,VWS V14.01,2013-08-13 15:19:00,
2013-08-13 11:20:00,72.1,64.5,29.71,SW,220,0.0,2.0,77,0.00,,SCT050,0.00,39.00,VWS V14.01,2013-08-13 15:20:00,
2013-08-13 11:21:00,72.0,64.0,29.71,SSW,205,0.0,2.0,76,0.00,,SCT050,0.00,37.00,VWS V14.01,2013-08-13 15:21:00,
2013-08-13 11:23:00,72.0,64.4,29.71,ENE,65,0.0,2.0,77,0.00,,SCT050,0.00,33.00,VWS V14.01,2013-08-13 15:23:00,
2013-08-13 11:24:00,71.8,64.2,29.71,ENE,71,0.0,2.0,77,0.00,,SCT050,0.00,35.00,VWS V14.01,2013-08-13 15:24:00,
2013-08-13 11:25:00,71.8,64.2,29.71,ENE,71,0.0,2.0,77,0.00,,SCT050,0.00,35.00,VWS V14.01,2013-08-13 15:25:00,
2013-08-13 11:26:00,71.8,64.2,29.71,WNW,289,0.0,2.0,77,0.00,,SCT050,0.00,35.00,VWS V14.01,2013-08-13 15:26:00,
2013-08-13 11:28:00,71.6,64.4,29.71,West,271,0.0,2.0,78,0.00,,SCT050,0.00,33.00,VWS V14.01,2013-08-13 15:28:00,
2013-08-13 11:30:00,71.6,64.8,29.71,West,268,0.0,2.0,79,0.00,,SCT050,0.00,28.00,VWS V14.01,2013-08-13 15:30:00,
2013-08-13 11:31:00,71.6,64.8,29.71,WSW,239,3.0,3.0,79,0.00,,SCT050,0.00,28.00,VWS V14.01,2013-08-13 15:31:00,
2013-08-13 11:33:00,71.5,65.0,29.71,WSW,239,0.0,0.0,80,0.00,,SCT050,0.00,14.00,VWS V14.01,2013-08-13 15:33:00,
2013-08-13 11:35:00,71.3,64.8,29.71,WSW,248,0.0,0.0,80,0.00,,SCT050,0.00,14.00,VWS V14.01,2013-08-13 15:35:00,
2013-08-13 11:36:00,71.1,65.0,29.71,WSW,248,0.0,0.0,81,0.00,,SCT050,0.00,14.00,VWS V14.01,2013-08-13 15:36:00,
2013-08-13 11:38:00,70.9,64.8,29.71,WSW,248,0.0,1.0,81,0.00,,SCT050,0.00,81.00,VWS V14.01,2013-08-13 15:38:00,
2013-08-13 11:40:00,70.8,65.0,29.71,WSW,248,0.0,1.0,82,0.00,,SCT050,0.00,97.00,VWS V14.01,2013-08-13 15:40:00,
2013-08-13 11:41:00,70.8,65.0,29.71,WSW,248,0.0,1.0,82,0.00,,SCT050,0.00,97.00,VWS V14.01,2013-08-13 15:41:00,
2013-08-13 11:44:00,70.6,65.2,29.71,WSW,250,0.0,1.0,83,0.00,,SCT050,0.00,53.00,VWS V14.01,2013-08-13 15:44:00,
2013-08-13 11:46:00,70.4,65.0,29.71,WSW,250,0.0,1.0,83,0.00,,SCT050,0.00,79.00,VWS V14.01,2013-08-13 15:46:00,
2013-08-13 11:47:00,70.4,65.0,29.71,WSW,250,0.0,1.0,83,0.00,,SCT050,0.00,90.00,VWS V14.01,2013-08-13 15:47:00,
2013-08-13 11:49:00,70.3,65.2,29.71,WSW,250,0.0,1.0,84,0.00,,SCT050,0.00,32.00,VWS V14.01,2013-08-13 15:49:00,
2013-08-13 11:51:00,70.1,65.1,29.71,WSW,250,0.0,1.0,84,0.00,,SCT050,0.00,19.00,VWS V14.01,2013-08-13 15:51:00,
2013-08-13 11:52:00,69.9,64.8,29.71,WSW,250,0.0,1.0,84,0.00,,SCT050,0.00,26.00,VWS V14.01,2013-08-13 15:52:00,
2013-08-13 11:53:00,69.8,64.8,29.71,WSW,253,0.0,1.0,84,0.00,,SCT050,0.00,35.00,VWS V14.01,2013-08-13 15:53:00,
2013-08-13 11:55:00,69.8,64.8,29.71,WSW,253,0.0,1.0,84,0.00,,SCT050,0.00,32.00,VWS V14.01,2013-08-13 15:55:00,
2013-08-13 11:56:00,69.6,64.6,29.71,WSW,253,0.0,1.0,84,0.00,,SCT050,0.00,40.00,VWS V14.01,2013-08-13 15:56:00,
2013-08-13 11:57:00,69.4,64.4,29.71,WSW,253,0.0,1.0,84,0.00,,SCT050,0.00,51.00,VWS V14.01,2013-08-13 15:57:00,
2013-08-13 11:58:00,69.3,64.6,29.71,WSW,258,0.0,1.0,85,0.00,,SCT050,0.00,56.00,VWS V14.01,2013-08-13 15:58:00,
2013-08-13 12:00:00,68.9,64.2,29.70,North,0,0.0,3.0,85,0.00,,OVC050,0.00,28.00,VWS V14.01,2013-08-13 16:00:00,
2013-08-13 12:01:00,69.1,64.4,29.70,North,0,0.0,3.0,85,0.00,,OVC040,0.00,39.00,VWS V14.01,2013-08-13 16:01:00,
2013-08-13 12:02:00,68.9,64.2,29.70,North,0,0.0,3.0,85,0.00,,OVC040,0.00,28.00,VWS V14.01,2013-08-13 16:02:00,
2013-08-13 12:03:00,68.8,64.1,29.70,NW,311,0.0,1.0,85,0.00,,OVC040,0.00,23.00,VWS V14.01,2013-08-13 16:03:00,
2013-08-13 12:04:00,68.6,63.9,29.70,NW,311,0.0,1.0,85,0.00,,OVC040,0.00,18.00,VWS V14.01,2013-08-13 16:04:00,
2013-08-13 12:06:00,68.4,64.1,29.70,NW,309,0.0,1.0,86,0.00,,OVC040,0.00,18.00,VWS V14.01,2013-08-13 16:06:00,
2013-08-13 12:07:00,68.4,64.1,29.70,NW,308,0.0,1.0,86,0.00,,OVC040,0.00,18.00,VWS V14.01,2013-08-13 16:07:00,
2013-08-13 12:08:00,68.3,64.0,29.70,NW,308,0.0,1.0,86,0.00,,OVC040,0.00,14.00,VWS V14.01,2013-08-13 16:08:00,
2013-08-13 12:09:00,68.1,63.8,29.70,NW,308,0.0,1.0,86,0.00,,OVC040,0.00,12.00,VWS V14.01,2013-08-13 16:09:00,
2013-08-13 12:12:00,67.9,63.9,29.70,NW,308,0.0,1.0,87,0.00,,OVC040,0.00,28.00,VWS V14.01,2013-08-13 16:12:00,
2013-08-13 12:13:00,67.8,63.8,29.70,NW,308,0.0,1.0,87,0.00,,OVC040,0.00,28.00,VWS V14.01,2013-08-13 16:13:00,
2013-08-13 12:14:00,67.8,63.8,29.70,NW,308,0.0,1.0,87,0.00,,OVC040,0.00,28.00,VWS V14.01,2013-08-13 16:14:00,
2013-08-13 12:15:00,67.6,63.6,29.70,NW,308,0.0,1.0,87,0.00,,OVC040,0.00,28.00,VWS V14.01,2013-08-13 16:15:00,
2013-08-13 12:17:00,67.6,63.6,29.71,NW,308,0.0,1.0,87,0.00,,OVC040,0.00,28.00,VWS V14.01,2013-08-13 16:17:00,
2013-08-13 12:18:00,67.4,63.4,29.71,NW,308,0.0,1.0,87,0.00,,OVC040,0.00,28.00,VWS V14.01,2013-08-13 16:18:00,
2013-08-13 12:19:00,67.4,63.4,29.71,NW,308,0.0,1.0,87,0.00,,OVC040,0.00,28.00,VWS V14.01,2013-08-13 16:19:00,
2013-08-13 12:20:00,67.4,63.7,29.71,NW,308,0.0,1.0,88,0.00,,OVC040,0.00,28.00,VWS V14.01,2013-08-13 16:20:00,
2013-08-13 12:22:00,67.3,63.6,29.71,NW,308,0.0,1.0,88,0.00,,OVC040,0.00,28.00,VWS V14.01,2013-08-13 16:22:00,
2013-08-13 12:23:00,67.3,63.6,29.71,NW,308,0.0,1.0,88,0.00,,OVC040,0.00,28.00,VWS V14.01,2013-08-13 16:23:00,
2013-08-13 12:24:00,67.1,63.4,29.71,NW,308,0.0,1.0,88,0.00,,OVC040,0.00,14.00,VWS V14.01,2013-08-13 16:24:00,
2013-08-13 12:25:00,67.1,63.4,29.71,NW,308,0.0,1.0,88,0.00,,OVC040,0.00,14.00,VWS V14.01,2013-08-13 16:25:00,
2013-08-13 12:27:00,67.1,63.8,29.71,NW,309,0.0,1.0,89,0.00,,OVC040,0.00,14.00,VWS V14.01,2013-08-13 16:27:00,
2013-08-13 12:28:00,66.9,63.6,29.71,NW,309,0.0,1.0,89,0.00,,OVC040,0.00,16.00,VWS V14.01,2013-08-13 16:28:00,
2013-08-13 12:29:00,66.9,63.6,29.71,NW,308,0.0,1.0,89,0.00,,OVC040,0.00,16.00,VWS V14.01,2013-08-13 16:29:00,
2013-08-13 12:30:00,66.8,63.5,29.70,NW,312,0.0,1.0,89,0.00,,OVC050,0.00,16.00,VWS V14.01,2013-08-13 16:30:00,
2013-08-13 12:31:00,66.8,63.5,29.71,NW,312,0.0,1.0,89,0.00,,OVC040,0.00,16.00,VWS V14.01,2013-08-13 16:31:00,
2013-08-13 12:32:00,66.8,63.5,29.70,NW,312,0.0,0.0,89,0.00,,OVC040,0.00,35.00,VWS V14.01,2013-08-13 16:32:00,
2013-08-13 12:34:00,66.6,63.3,29.70,NW,312,0.0,0.0,89,0.00,,OVC040,0.00,35.00,VWS V14.01,2013-08-13 16:34:00,
2013-08-13 12:36:00,66.6,63.3,29.70,NW,312,0.0,0.0,89,0.00,,OVC040,0.00,35.00,VWS V14.01,2013-08-13 16:36:00,
2013-08-13 12:37:00,66.4,63.4,29.70,NW,312,0.0,0.0,90,0.00,,OVC040,0.00,48.00,VWS V14.01,2013-08-13 16:37:00,
2013-08-13 12:39:00,66.4,63.4,29.70,NW,312,0.0,0.0,90,0.00,,OVC040,0.00,48.00,VWS V14.01,2013-08-13 16:39:00,
2013-08-13 12:40:00,66.4,63.4,29.70,NW,312,0.0,0.0,90,0.00,,OVC040,0.00,48.00,VWS V14.01,2013-08-13 16:40:00,
2013-08-13 12:41:00,66.4,63.4,29.70,NW,312,0.0,0.0,90,0.01,,OVC040,0.01,70.00,VWS V14.01,2013-08-13 16:41:00,
2013-08-13 12:43:00,66.3,63.3,29.70,NW,312,0.0,0.0,90,0.01,,OVC040,0.01,65.00,VWS V14.01,2013-08-13 16:43:00,
2013-08-13 12:44:00,66.3,63.3,29.70,NW,312,0.0,0.0,90,0.01,,OVC040,0.01,37.00,VWS V14.01,2013-08-13 16:44:00,
2013-08-13 12:45:00,66.3,63.6,29.70,NW,312,0.0,0.0,91,0.01,,OVC040,0.01,37.00,VWS V14.01,2013-08-13 16:45:00,
2013-08-13 12:47:00,66.3,63.6,29.71,NW,312,0.0,0.0,91,0.01,,OVC040,0.01,60.00,VWS V14.01,2013-08-13 16:47:00,
2013-08-13 12:48:00,66.3,63.6,29.71,NW,312,0.0,0.0,91,0.01,,OVC040,0.01,53.00,VWS V14.01,2013-08-13 16:48:00,
2013-08-13 12:50:00,66.1,63.4,29.71,NW,312,0.0,0.0,91,0.01,,OVC040,0.01,49.00,VWS V14.01,2013-08-13 16:50:00,
2013-08-13 12:52:00,66.1,63.4,29.71,NW,312,0.0,0.0,91,0.01,,OVC040,0.01,86.00,VWS V14.01,2013-08-13 16:52:00,
2013-08-13 12:53:00,66.1,63.4,29.71,NW,312,0.0,0.0,91,0.01,,OVC040,0.01,86.00,VWS V14.01,2013-08-13 16:53:00,
2013-08-13 12:54:00,66.1,63.4,29.71,NW,312,0.0,0.0,91,0.01,,OVC040,0.01,86.00,VWS V14.01,2013-08-13 16:54:00,
2013-08-13 12:55:00,66.1,63.7,29.71,NW,312,0.0,0.0,92,0.01,,OVC040,0.01,62.00,VWS V14.01,2013-08-13 16:55:00,
2013-08-13 12:57:00,66.1,63.7,29.71,NW,312,0.0,0.0,92,0.01,,OVC040,0.01,53.00,VWS V14.01,2013-08-13 16:57:00,
2013-08-13 12:58:00,66.1,63.7,29.71,NW,312,0.0,0.0,92,0.01,,OVC040,0.01,72.00,VWS V14.01,2013-08-13 16:58:00,
2013-08-13 12:59:00,66.0,63.6,29.71,NW,312,0.0,0.0,92,0.01,,OVC040,0.01,99.00,VWS V14.01,2013-08-13 16:59:00,
2013-08-13 13:00:00,66.0,63.6,29.70,NW,312,0.0,0.0,92,0.01,,OVC050,0.01,164.00,VWS V14.01,2013-08-13 17:00:00,
2013-08-13 13:01:00,66.0,63.6,29.71,NW,312,0.0,0.0,92,0.01,,OVC034,0.01,179.00,VWS V14.01,2013-08-13 17:01:00,
2013-08-13 13:03:00,66.0,63.6,29.70,NW,312,0.0,0.0,92,0.01,,OVC034,0.01,158.00,VWS V14.01,2013-08-13 17:03:00,
2013-08-13 13:04:00,66.0,63.6,29.70,West,260,0.0,3.0,92,0.01,,OVC034,0.01,165.00,VWS V14.01,2013-08-13 17:04:00,
2013-08-13 13:06:00,65.8,63.4,29.70,West,260,0.0,3.0,92,0.01,,OVC034,0.01,123.00,VWS V14.01,2013-08-13 17:06:00,
2013-08-13 13:08:00,65.8,63.4,29.70,West,260,0.0,3.0,92,0.01,,OVC034,0.01,121.00,VWS V14.01,2013-08-13 17:08:00,
2013-08-13 13:12:00,65.6,63.2,29.70,West,270,0.0,3.0,92,0.01,,OVC034,0.01,139.00,VWS V14.01,2013-08-13 17:12:00,
2013-08-13 13:13:00,65.6,63.2,29.70,West,270,0.0,3.0,92,0.01,,OVC034,0.01,139.00,VWS V14.01,2013-08-13 17:13:00,
2013-08-13 13:17:00,65.6,63.2,29.70,West,270,0.0,3.0,92,0.01,,OVC034,0.01,125.00,VWS V14.01,2013-08-13 17:17:00,
2013-08-13 13:18:00,65.6,63.2,29.70,West,270,0.0,3.0,92,0.01,,OVC034,0.01,125.00,VWS V14.01,2013-08-13 17:18:00,
2013-08-13 13:22:00,65.6,63.5,29.70,West,270,0.0,3.0,93,0.01,,OVC034,0.01,143.00,VWS V14.01,2013-08-13 17:22:00,
2013-08-13 13:23:00,65.6,63.5,29.70,West,270,0.0,3.0,93,0.01,,OVC034,0.01,143.00,VWS V14.01,2013-08-13 17:23:00,
2013-08-13 13:24:00,65.6,63.5,29.70,West,270,0.0,3.0,93,0.01,,OVC034,0.01,125.00,VWS V14.01,2013-08-13 17:24:00,
2013-08-13 13:28:00,65.6,63.5,29.70,West,270,0.0,3.0,93,0.01,,OVC034,0.01,148.00,VWS V14.01,2013-08-13 17:28:00,
2013-08-13 13:29:00,65.6,63.5,29.70,West,270,0.0,3.0,93,0.01,,OVC034,0.01,158.00,VWS V14.01,2013-08-13 17:29:00,
2013-08-13 13:30:00,65.6,63.8,29.70,West,270,0.0,3.0,94,0.01,,OVC050,0.01,199.00,VWS V14.01,2013-08-13 17:30:00,
2013-08-13 13:33:00,65.8,64.0,29.70,West,270,0.0,0.0,94,0.01,,OVC034,0.01,171.00,VWS V14.01,2013-08-13 17:33:00,
2013-08-13 13:34:00,65.8,64.0,29.70,West,270,0.0,0.0,94,0.01,,OVC034,0.01,162.00,VWS V14.01,2013-08-13 17:34:00,
2013-08-13 13:35:00,65.8,64.0,29.70,West,270,0.0,0.0,94,0.01,,OVC034,0.01,169.00,VWS V14.01,2013-08-13 17:35:00,
2013-08-13 13:39:00,65.8,64.0,29.70,West,270,0.0,0.0,94,0.01,,OVC034,0.01,197.00,VWS V14.01,2013-08-13 17:39:00,
2013-08-13 13:40:00,65.8,64.0,29.70,West,270,0.0,0.0,94,0.01,,OVC034,0.01,236.00,VWS V14.01,2013-08-13 17:40:00,
2013-08-13 13:41:00,65.8,64.0,29.70,West,270,0.0,0.0,94,0.01,,OVC034,0.01,236.00,VWS V14.01,2013-08-13 17:41:00,
2013-08-13 13:45:00,65.8,64.0,29.70,West,270,0.0,0.0,94,0.01,,OVC034,0.01,262.00,VWS V14.01,2013-08-13 17:45:00,
2013-08-13 13:46:00,65.8,64.0,29.69,West,270,0.0,0.0,94,0.01,,OVC034,0.01,253.00,VWS V14.01,2013-08-13 17:46:00,
2013-08-13 13:50:00,65.8,63.7,29.69,West,270,0.0,0.0,93,0.01,,OVC034,0.01,259.00,VWS V14.01,2013-08-13 17:50:00,
2013-08-13 13:51:00,65.8,64.0,29.69,West,270,0.0,0.0,94,0.01,,OVC034,0.01,259.00,VWS V14.01,2013-08-13 17:51:00,
2013-08-13 13:52:00,65.8,64.0,29.69,West,270,0.0,0.0,94,0.01,,OVC034,0.01,255.00,VWS V14.01,2013-08-13 17:52:00,
2013-08-13 13:55:00,65.8,64.0,29.69,West,270,0.0,0.0,94,0.01,,OVC034,0.01,238.00,VWS V14.01,2013-08-13 17:55:00,
2013-08-13 13:56:00,65.8,64.0,29.69,West,270,0.0,0.0,94,0.01,,OVC034,0.01,241.00,VWS V14.01,2013-08-13 17:56:00,
2013-08-13 13:57:00,66.0,64.2,29.69,West,270,0.0,0.0,94,0.01,,OVC034,0.01,243.00,VWS V14.01,2013-08-13 17:57:00,
2013-08-13 13:59:00,66.0,64.2,29.69,West,270,0.0,0.0,94,0.01,,OVC034,0.01,239.00,VWS V14.01,2013-08-13 17:59:00,
2013-08-13 14:00:00,66.0,64.2,29.69,West,270,0.0,0.0,94,0.01,,BKN035,0.01,236.00,VWS V14.01,2013-08-13 18:00:00,
2013-08-13 14:01:00,66.1,64.3,29.68,West,270,0.0,0.0,94,0.01,,BKN035,0.01,236.00,VWS V14.01,2013-08-13 18:01:00,
2013-08-13 14:02:00,66.1,64.3,29.68,West,270,0.0,0.0,94,0.01,,BKN035,0.01,238.00,VWS V14.01,2013-08-13 18:02:00,
2013-08-13 14:04:00,66.1,64.3,29.68,West,270,0.0,0.0,94,0.00,,BKN035,0.01,239.00,VWS V14.01,2013-08-13 18:04:00,
2013-08-13 14:05:00,66.3,64.5,29.68,West,270,0.0,0.0,94,0.00,,BKN035,0.01,236.00,VWS V14.01,2013-08-13 18:05:00,
2013-08-13 14:06:00,66.3,64.5,29.68,West,270,0.0,0.0,94,0.00,,BKN035,0.01,229.00,VWS V14.01,2013-08-13 18:06:00,
2013-08-13 14:07:00,66.3,64.5,29.68,West,270,0.0,0.0,94,0.00,,BKN035,0.01,229.00,VWS V14.01,2013-08-13 18:07:00,
2013-08-13 14:09:00,66.4,64.6,29.68,West,270,0.0,0.0,94,0.00,,BKN035,0.01,220.00,VWS V14.01,2013-08-13 18:09:00,
2013-08-13 14:12:00,66.4,64.6,29.68,West,270,0.0,0.0,94,0.00,,BKN035,0.01,176.00,VWS V14.01,2013-08-13 18:12:00,
2013-08-13 14:13:00,66.6,64.8,29.68,West,270,0.0,0.0,94,0.00,,BKN035,0.01,114.00,VWS V14.01,2013-08-13 18:13:00,
2013-08-13 14:14:00,66.6,64.8,29.68,West,270,0.0,0.0,94,0.00,,BKN035,0.01,114.00,VWS V14.01,2013-08-13 18:14:00,
2013-08-13 14:17:00,66.6,64.8,29.68,West,270,0.0,0.0,94,0.00,,BKN035,0.01,81.00,VWS V14.01,2013-08-13 18:17:00,
2013-08-13 14:18:00,66.6,64.8,29.68,West,270,0.0,0.0,94,0.00,,BKN035,0.01,106.00,VWS V14.01,2013-08-13 18:18:00,
2013-08-13 14:19:00,66.6,64.8,29.68,West,270,0.0,0.0,94,0.00,,BKN035,0.01,109.00,VWS V14.01,2013-08-13 18:19:00,
2013-08-13 14:20:00,66.6,64.8,29.68,West,270,0.0,0.0,94,0.00,,BKN035,0.01,109.00,VWS V14.01,2013-08-13 18:20:00,
2013-08-13 14:22:00,66.6,64.8,29.68,West,270,0.0,0.0,94,0.00,,BKN035,0.01,91.00,VWS V14.01,2013-08-13 18:22:00,
2013-08-13 14:23:00,66.6,64.8,29.68,West,270,0.0,0.0,94,0.00,,BKN035,0.01,93.00,VWS V14.01,2013-08-13 18:23:00,
2013-08-13 14:24:00,66.6,64.8,29.68,West,270,0.0,0.0,94,0.00,,BKN035,0.01,93.00,VWS V14.01,2013-08-13 18:24:00,
2013-08-13 14:25:00,66.6,64.8,29.68,West,270,0.0,0.0,94,0.00,,BKN035,0.01,95.00,VWS V14.01,2013-08-13 18:25:00,
2013-08-13 14:27:00,66.6,64.8,29.68,West,270,0.0,0.0,94,0.00,,BKN035,0.01,84.00,VWS V14.01,2013-08-13 18:27:00,
2013-08-13 14:28:00,66.6,64.8,29.68,West,270,0.0,0.0,94,0.00,,BKN035,0.01,79.00,VWS V14.01,2013-08-13 18:28:00,
2013-08-13 14:30:00,66.6,64.8,29.68,West,270,0.0,0.0,94,0.00,,BKN035,0.01,55.00,VWS V14.01,2013-08-13 18:30:00,
2013-08-13 14:32:00,66.6,64.8,29.68,West,270,0.0,0.0,94,0.00,,BKN035,0.01,79.00,VWS V14.01,2013-08-13 18:32:00,
2013-08-13 14:33:00,66.8,65.0,29.68,West,270,0.0,0.0,94,0.00,,BKN035,0.01,91.00,VWS V14.01,2013-08-13 18:33:00,
2013-08-13 14:35:00,66.8,65.0,29.68,West,270,0.0,0.0,94,0.00,,BKN035,0.01,81.00,VWS V14.01,2013-08-13 18:35:00,
2013-08-13 14:36:00,66.8,65.0,29.68,West,270,0.0,0.0,94,0.00,,BKN035,0.01,74.00,VWS V14.01,2013-08-13 18:36:00,
2013-08-13 14:38:00,66.8,65.0,29.68,West,270,0.0,0.0,94,0.00,,BKN035,0.01,86.00,VWS V14.01,2013-08-13 18:38:00,
2013-08-13 14:41:00,66.6,64.8,29.68,West,270,0.0,0.0,94,0.00,,BKN035,0.01,120.00,VWS V14.01,2013-08-13 18:41:00,
2013-08-13 14:43:00,66.6,64.8,29.68,West,270,0.0,0.0,94,0.00,,BKN035,0.01,164.00,VWS V14.01,2013-08-13 18:43:00,
2013-08-13 14:44:00,66.6,64.8,29.68,West,270,0.0,0.0,94,0.00,,BKN035,0.01,252.00,VWS V14.01,2013-08-13 18:44:00,
2013-08-13 14:46:00,66.6,64.8,29.67,West,270,0.0,0.0,94,0.00,,BKN035,0.01,211.00,VWS V14.01,2013-08-13 18:46:00,
2013-08-13 14:48:00,66.8,65.0,29.67,West,270,0.0,0.0,94,0.00,,BKN035,0.01,187.00,VWS V14.01,2013-08-13 18:48:00,
2013-08-13 14:50:00,66.8,65.0,29.67,West,270,0.0,0.0,94,0.00,,BKN035,0.01,183.00,VWS V14.01,2013-08-13 18:50:00,
2013-08-13 14:52:00,66.8,65.0,29.67,West,270,0.0,0.0,94,0.00,,BKN035,0.01,190.00,VWS V14.01,2013-08-13 18:52:00,
2013-08-13 14:54:00,66.8,65.0,29.67,West,270,0.0,0.0,94,0.00,,BKN035,0.01,197.00,VWS V14.01,2013-08-13 18:54:00,
2013-08-13 14:55:00,66.8,65.0,29.67,West,270,0.0,0.0,94,0.00,,BKN035,0.01,202.00,VWS V14.01,2013-08-13 18:55:00,
2013-08-13 14:57:00,66.9,65.1,29.67,West,270,0.0,0.0,94,0.00,,BKN035,0.01,243.00,VWS V14.01,2013-08-13 18:57:00,
2013-08-13 14:59:00,66.9,65.1,29.67,West,270,0.0,0.0,94,0.00,,BKN035,0.01,290.00,VWS V14.01,2013-08-13 18:59:00,
2013-08-13 15:00:00,66.9,65.1,29.67,NW,322,0.0,0.0,94,0.00,,OVC043,0.01,299.00,VWS V14.01,2013-08-13 19:00:00,
2013-08-13 15:02:00,67.1,65.3,29.66,NW,322,0.0,0.0,94,0.00,,OVC043,0.01,267.00,VWS V14.01,2013-08-13 19:02:00,
2013-08-13 15:04:00,67.3,65.8,29.66,NW,322,0.0,0.0,95,0.00,,OVC043,0.01,213.00,VWS V14.01,2013-08-13 19:04:00,
2013-08-13 15:05:00,67.3,65.8,29.66,NW,322,0.0,0.0,95,0.00,,OVC043,0.01,204.00,VWS V14.01,2013-08-13 19:05:00,
2013-08-13 15:06:00,67.3,65.8,29.66,NW,322,0.0,0.0,95,0.00,,OVC043,0.01,197.00,VWS V14.01,2013-08-13 19:06:00,
2013-08-13 15:07:00,67.4,65.9,29.66,NW,322,0.0,0.0,95,0.00,,OVC043,0.01,185.00,VWS V14.01,2013-08-13 19:07:00,
2013-08-13 15:10:00,67.6,66.1,29.66,NW,322,0.0,0.0,95,0.00,,OVC043,0.01,165.00,VWS V14.01,2013-08-13 19:10:00,
2013-08-13 15:11:00,67.6,66.1,29.66,NNE,24,0.0,0.0,95,0.00,,OVC043,0.01,165.00,VWS V14.01,2013-08-13 19:11:00,
2013-08-13 15:12:00,67.6,66.1,29.66,NNE,20,0.0,0.0,95,0.00,,OVC043,0.01,151.00,VWS V14.01,2013-08-13 19:12:00,
2013-08-13 15:15:00,67.8,66.3,29.66,NNE,20,0.0,0.0,95,0.00,,OVC043,0.01,160.00,VWS V14.01,2013-08-13 19:15:00,
2013-08-13 15:16:00,67.8,66.3,29.66,NNE,20,0.0,0.0,95,0.00,,OVC043,0.01,160.00,VWS V14.01,2013-08-13 19:16:00,
2013-08-13 15:18:00,67.8,66.3,29.65,NNE,21,0.0,0.0,95,0.00,,OVC043,0.01,190.00,VWS V14.01,2013-08-13 19:18:00,
2013-08-13 15:21:00,67.9,66.4,29.65,NNE,21,0.0,0.0,95,0.00,,OVC043,0.01,216.00,VWS V14.01,2013-08-13 19:21:00,
2013-08-13 15:22:00,67.9,66.4,29.65,NNE,21,0.0,0.0,95,0.00,,OVC043,0.01,215.00,VWS V14.01,2013-08-13 19:22:00,
2013-08-13 15:23:00,68.1,66.6,29.65,NE,55,0.0,1.0,95,0.00,,OVC043,0.01,213.00,VWS V14.01,2013-08-13 19:23:00,
2013-08-13 15:26:00,68.1,66.6,29.65,NE,56,0.0,1.0,95,0.00,,OVC043,0.01,243.00,VWS V14.01,2013-08-13 19:26:00,
2013-08-13 15:27:00,68.1,66.3,29.65,NE,56,0.0,1.0,94,0.00,,OVC043,0.01,248.00,VWS V14.01,2013-08-13 19:27:00,
2013-08-13 15:28:00,68.1,66.3,29.65,ENE,76,0.0,1.0,94,0.00,,OVC043,0.01,255.00,VWS V14.01,2013-08-13 19:28:00,
2013-08-13 15:30:00,68.3,66.5,29.65,East,86,0.0,1.0,94,0.00,,OVC050,0.01,262.00,VWS V14.01,2013-08-13 19:30:00,
2013-08-13 15:31:00,68.3,66.5,29.65,East,86,0.0,1.0,94,0.00,,OVC043,0.01,271.00,VWS V14.01,2013-08-13 19:31:00,
2013-08-13 15:32:00,68.3,66.5,29.65,East,86,0.0,1.0,94,0.00,,OVC043,0.01,262.00,VWS V14.01,2013-08-13 19:32:00,
2013-08-13 15:33:00,68.3,66.5,29.65,East,86,0.0,0.0,94,0.00,,OVC043,0.01,248.00,VWS V14.01,2013-08-13 19:33:00,
2013-08-13 15:36:00,68.4,66.6,29.65,South,171,0.0,0.0,94,0.00,,OVC043,0.01,197.00,VWS V14.01,2013-08-13 19:36:00,
2013-08-13 15:37:00,68.4,66.3,29.65,South,171,0.0,0.0,93,0.00,,OVC043,0.01,197.00,VWS V14.01,2013-08-13 19:37:00,
2013-08-13 15:38:00,68.4,66.3,29.65,South,171,0.0,0.0,93,0.00,,OVC043,0.01,187.00,VWS V14.01,2013-08-13 19:38:00,
2013-08-13 15:39:00,68.4,66.3,29.65,SE,133,0.0,0.0,93,0.00,,OVC043,0.01,197.00,VWS V14.01,2013-08-13 19:39:00,
2013-08-13 15:41:00,68.1,65.4,29.65,SSE,148,0.0,3.0,91,0.00,,OVC043,0.01,215.00,VWS V14.01,2013-08-13 19:41:00,
2013-08-13 15:42:00,68.1,65.4,29.65,SSW,209,0.0,3.0,91,0.00,,OVC043,0.01,271.00,VWS V14.01,2013-08-13 19:42:00,
2013-08-13 15:43:00,68.1,65.4,29.65,SSW,192,0.0,3.0,91,0.00,,OVC043,0.01,269.00,VWS V14.01,2013-08-13 19:43:00,
2013-08-13 15:44:00,68.3,65.6,29.65,SSW,192,0.0,3.0,91,0.00,,OVC043,0.01,257.00,VWS V14.01,2013-08-13 19:44:00,
2013-08-13 15:46:00,68.3,65.6,29.64,SSW,196,0.0,3.0,91,0.00,,OVC043,0.01,255.00,VWS V14.01,2013-08-13 19:46:00,
2013-08-13 15:47:00,68.4,65.7,29.64,SSW,196,0.0,3.0,91,0.00,,OVC043,0.01,354.00,VWS V14.01,2013-08-13 19:47:00,
2013-08-13 15:48:00,68.4,65.7,29.64,SW,234,0.0,5.0,91,0.00,,OVC043,0.01,304.00,VWS V14.01,2013-08-13 19:48:00,
2013-08-13 15:49:00,68.4,65.4,29.64,WSW,237,0.0,5.0,90,0.00,,OVC043,0.01,304.00,VWS V14.01,2013-08-13 19:49:00,
2013-08-13 15:50:00,68.4,65.4,29.64,SSE,161,0.0,5.0,90,0.00,,OVC043,0.01,292.00,VWS V14.01,2013-08-13 19:50:00,
2013-08-13 15:52:00,68.6,65.2,29.64,SSE,162,0.0,5.0,89,0.00,,OVC043,0.01,220.00,VWS V14.01,2013-08-13 19:52:00,
2013-08-13 15:53:00,68.6,65.2,29.64,SSE,162,0.0,5.0,89,0.00,,OVC043,0.01,220.00,VWS V14.01,2013-08-13 19:53:00,
2013-08-13 15:54:00,68.8,65.8,29.64,SSE,162,0.0,5.0,90,0.00,,OVC043,0.01,199.00,VWS V14.01,2013-08-13 19:54:00,
2013-08-13 15:55:00,68.8,65.8,29.64,SSE,164,0.0,5.0,90,0.00,,OVC043,0.01,199.00,VWS V14.01,2013-08-13 19:55:00,
2013-08-13 15:56:00,68.8,65.4,29.64,SSE,165,0.0,5.0,89,0.00,,OVC043,0.01,179.00,VWS V14.01,2013-08-13 19:56:00,
2013-08-13 15:58:00,68.8,65.4,29.64,SSE,164,0.0,5.0,89,0.00,,OVC043,0.01,165.00,VWS V14.01,2013-08-13 19:58:00,
2013-08-13 16:00:00,68.8,65.1,29.64,SSE,168,0.0,5.0,88,0.00,,OVC043,0.01,158.00,VWS V14.01,2013-08-13 20:00:00,
2013-08-13 16:01:00,68.8,65.1,29.63,SSE,165,0.0,5.0,88,0.00,,OVC050,0.01,158.00,VWS V14.01,2013-08-13 20:01:00,
2013-08-13 16:03:00,68.8,65.1,29.63,SSE,164,0.0,2.0,88,0.00,,OVC050,0.01,197.00,VWS V14.01,2013-08-13 20:03:00,
2013-08-13 16:05:00,68.8,64.8,29.63,SW,217,0.0,2.0,87,0.00,,OVC050,0.01,227.00,VWS V14.01,2013-08-13 20:05:00,
2013-08-13 16:06:00,68.8,64.8,29.63,SW,217,0.0,2.0,87,0.00,,OVC050,0.01,227.00,VWS V14.01,2013-08-13 20:06:00,
2013-08-13 16:08:00,68.9,64.9,29.63,WNW,302,0.0,2.0,87,0.00,,OVC050,0.01,225.00,VWS V14.01,2013-08-13 20:08:00,
2013-08-13 16:10:00,68.9,64.9,29.63,South,174,0.0,5.0,87,0.00,,OVC050,0.01,248.00,VWS V14.01,2013-08-13 20:10:00,
2013-08-13 16:11:00,68.8,64.8,29.63,South,174,0.0,5.0,87,0.00,,OVC050,0.01,245.00,VWS V14.01,2013-08-13 20:11:00,
2013-08-13 16:12:00,68.8,64.4,29.63,SSE,150,0.0,5.0,86,0.00,,OVC050,0.01,238.00,VWS V14.01,2013-08-13 20:12:00,
2013-08-13 16:13:00,68.8,64.1,29.63,SSE,162,0.0,6.0,85,0.00,,OVC050,0.01,232.00,VWS V14.01,2013-08-13 20:13:00,
2013-08-13 16:14:00,68.8,64.1,29.63,SSE,162,0.0,6.0,85,0.00,,OVC050,0.01,232.00,VWS V14.01,2013-08-13 20:14:00,
2013-08-13 16:16:00,68.9,64.9,29.63,SSW,209,6.0,6.0,87,0.00,,OVC050,0.01,257.00,VWS V14.01,2013-08-13 20:16:00,
2013-08-13 16:17:00,68.9,64.6,29.63,SSE,168,0.0,6.0,86,0.00,,OVC050,0.01,260.00,VWS V14.01,2013-08-13 20:17:00,
2013-08-13 16:19:00,68.9,64.6,29.63,SSE,157,0.0,6.0,86,0.00,,OVC050,0.01,232.00,VWS V14.01,2013-08-13 20:19:00,
2013-08-13 16:21:00,68.9,64.6,29.63,South,182,0.0,6.0,86,0.00,,OVC050,0.01,201.00,VWS V14.01,2013-08-13 20:21:00,
2013-08-13 16:22:00,68.9,64.6,29.63,South,182,0.0,6.0,86,0.00,,OVC050,0.01,202.00,VWS V14.01,2013-08-13 20:22:00,
2013-08-13 16:24:00,68.9,64.6,29.63,South,182,0.0,6.0,86,0.00,,OVC050,0.01,213.00,VWS V14.01,2013-08-13 20:24:00,
2013-08-13 16:25:00,69.1,65.1,29.63,South,182,0.0,6.0,87,0.00,,OVC050,0.01,201.00,VWS V14.01,2013-08-13 20:25:00,
2013-08-13 16:26:00,69.1,65.1,29.63,South,169,0.0,6.0,87,0.00,,OVC050,0.01,195.00,VWS V14.01,2013-08-13 20:26:00,
2013-08-13 16:27:00,69.1,65.1,29.63,South,169,0.0,6.0,87,0.00,,OVC050,0.01,195.00,VWS V14.01,2013-08-13 20:27:00,
2013-08-13 16:29:00,69.1,65.1,29.63,South,174,0.0,6.0,87,0.00,,OVC050,0.01,197.00,VWS V14.01,2013-08-13 20:29:00,
2013-08-13 16:30:00,69.1,65.1,29.63,South,174,0.0,6.0,87,0.00,,OVC050,0.01,172.00,VWS V14.01,2013-08-13 20:30:00,
2013-08-13 16:32:00,68.9,64.6,29.63,SSW,210,0.0,6.0,86,0.00,,OVC050,0.01,137.00,VWS V14.01,2013-08-13 20:32:00,
2013-08-13 16:35:00,68.9,64.6,29.63,SW,215,0.0,0.0,86,0.00,,OVC050,0.01,109.00,VWS V14.01,2013-08-13 20:35:00,
2013-08-13 16:36:00,69.1,65.1,29.63,SW,215,0.0,0.0,87,0.00,,OVC050,0.01,102.00,VWS V14.01,2013-08-13 20:36:00,
2013-08-13 16:37:00,69.1,65.1,29.63,SW,215,0.0,0.0,87,0.00,,OVC050,0.01,99.00,VWS V14.01,2013-08-13 20:37:00,
2013-08-13 16:40:00,68.9,64.6,29.63,South,186,0.0,2.0,86,0.00,,OVC050,0.01,95.00,VWS V14.01,2013-08-13 20:40:00,
2013-08-13 16:41:00,68.9,64.2,29.63,South,179,0.0,2.0,85,0.00,,OVC050,0.01,109.00,VWS V14.01,2013-08-13 20:41:00,
2013-08-13 16:42:00,68.9,64.6,29.63,ESE,113,0.0,2.0,86,0.00,,OVC050,0.01,114.00,VWS V14.01,2013-08-13 20:42:00,
2013-08-13 16:43:00,68.9,64.6,29.63,ESE,113,0.0,2.0,86,0.00,,OVC050,0.01,116.00,VWS V14.01,2013-08-13 20:43:00,
2013-08-13 16:45:00,68.8,64.1,29.63,SSE,168,0.0,2.0,85,0.00,,OVC050,0.01,118.00,VWS V14.01,2013-08-13 20:45:00,
2013-08-13 16:46:00,68.8,64.1,29.62,SSE,168,0.0,2.0,85,0.00,,OVC050,0.01,114.00,VWS V14.01,2013-08-13 20:46:00,
2013-08-13 16:48:00,68.6,63.9,29.62,South,174,0.0,2.0,85,0.00,,OVC050,0.01,97.00,VWS V14.01,2013-08-13 20:48:00,
2013-08-13 16:50:00,68.6,63.9,29.62,South,171,0.0,2.0,85,0.00,,OVC050,0.01,69.00,VWS V14.01,2013-08-13 20:50:00,
2013-08-13 16:52:00,68.6,63.9,29.62,South,171,0.0,2.0,85,0.00,,OVC050,0.01,60.00,VWS V14.01,2013-08-13 20:52:00,
2013-08-13 16:53:00,68.4,63.7,29.62,South,186,0.0,4.0,85,0.00,,OVC050,0.01,58.00,VWS V14.01,2013-08-13 20:53:00,
2013-08-13 16:54:00,68.4,63.4,29.62,South,182,0.0,4.0,84,0.00,,OVC050,0.01,58.00,VWS V14.01,2013-08-13 20:54:00,
2013-08-13 16:56:00,68.4,63.4,29.62,SSE,148,0.0,4.0,84,0.00,,OVC050,0.01,58.00,VWS V14.01,2013-08-13 20:56:00,
2013-08-13 16:57:00,68.3,63.3,29.62,SSE,151,0.0,4.0,84,0.00,,OVC050,0.01,60.00,VWS V14.01,2013-08-13 20:57:00,
2013-08-13 16:58:00,68.3,63.3,29.62,SSE,151,0.0,4.0,84,0.00,,OVC050,0.01,60.00,VWS V14.01,2013-08-13 20:58:00,
2013-08-13 16:59:00,68.3,63.3,29.62,SSE,151,0.0,4.0,84,0.00,,OVC050,0.01,62.00,VWS V14.01,2013-08-13 20:59:00,
2013-08-13 17:00:00,68.3,63.3,29.63,SSE,154,0.0,4.0,84,0.00,,OVC050,0.01,67.00,VWS V14.01,2013-08-13 21:00:00,
2013-08-13 17:01:00,68.3,63.6,29.63,SSE,151,0.0,4.0,85,0.00,,BKN075,0.01,65.00,VWS V14.01,2013-08-13 21:01:00,
2013-08-13 17:03:00,68.3,63.6,29.63,SSE,154,0.0,0.0,85,0.00,,BKN075,0.01,67.00,VWS V14.01,2013-08-13 21:03:00,
2013-08-13 17:04:00,68.1,63.4,29.63,SSE,154,0.0,0.0,85,0.00,,BKN075,0.01,65.00,VWS V14.01,2013-08-13 21:04:00,
2013-08-13 17:07:00,68.1,63.4,29.63,SSW,192,0.0,0.0,85,0.00,,BKN075,0.01,56.00,VWS V14.01,2013-08-13 21:07:00,
2013-08-13 17:08:00,67.9,63.2,29.63,SSW,192,0.0,0.0,85,0.00,,BKN075,0.01,58.00,VWS V14.01,2013-08-13 21:08:00,
2013-08-13 17:10:00,67.9,63.2,29.63,South,185,0.0,0.0,85,0.00,,BKN075,0.01,65.00,VWS V14.01,2013-08-13 21:10:00,
2013-08-13 17:12:00,67.9,63.6,29.63,South,185,0.0,0.0,86,0.00,,BKN075,0.01,62.00,VWS V14.01,2013-08-13 21:12:00,
2013-08-13 17:13:00,67.9,63.6,29.63,South,185,0.0,0.0,86,0.00,,BKN075,0.01,62.00,VWS V14.01,2013-08-13 21:13:00,
2013-08-13 17:14:00,67.8,63.5,29.63,South,185,0.0,0.0,86,0.00,,BKN075,0.01,63.00,VWS V14.01,2013-08-13 21:14:00,
2013-08-13 17:15:00,67.8,63.5,29.63,South,185,0.0,0.0,86,0.00,,BKN075,0.01,67.00,VWS V14.01,2013-08-13 21:15:00,
2013-08-13 17:17:00,67.8,63.1,29.62,SSE,155,0.0,3.0,85,0.00,,BKN075,0.01,77.00,VWS V14.01,2013-08-13 21:17:00,
2013-08-13 17:19:00,67.8,63.5,29.62,SSE,155,0.0,3.0,86,0.00,,BKN075,0.01,77.00,VWS V14.01,2013-08-13 21:19:00,
2013-08-13 17:21:00,67.8,63.5,29.62,SSW,195,0.0,3.0,86,0.00,,BKN075,0.01,77.00,VWS V14.01,2013-08-13 21:21:00,
2013-08-13 17:23:00,67.6,63.3,29.62,South,181,0.0,3.0,86,0.00,,BKN075,0.01,79.00,VWS V14.01,2013-08-13 21:23:00,
2013-08-13 17:24:00,67.6,63.3,29.62,South,171,0.0,3.0,86,0.00,,BKN075,0.01,86.00,VWS V14.01,2013-08-13 21:24:00,
2013-08-13 17:25:00,67.6,63.3,29.62,South,171,0.0,3.0,86,0.00,,BKN075,0.01,91.00,VWS V14.01,2013-08-13 21:25:00,
2013-08-13 17:26:00,67.6,62.9,29.62,South,171,0.0,3.0,85,0.00,,BKN075,0.01,91.00,VWS V14.01,2013-08-13 21:26:00,
2013-08-13 17:29:00,67.6,63.3,29.62,South,171,0.0,3.0,86,0.00,,BKN075,0.01,109.00,VWS V14.01,2013-08-13 21:29:00,
2013-08-13 17:30:00,67.6,63.3,29.62,South,171,0.0,3.0,86,0.00,,BKN075,0.01,109.00,VWS V14.01,2013-08-13 21:30:00,
2013-08-13 17:31:00,67.6,63.3,29.62,South,171,0.0,3.0,86,0.00,,BKN075,0.01,111.00,VWS V14.01,2013-08-13 21:31:00,
2013-08-13 17:34:00,67.4,62.7,29.62,South,169,0.0,0.0,85,0.00,,BKN075,0.01,107.00,VWS V14.01,2013-08-13 21:34:00,
2013-08-13 17:35:00,67.4,62.7,29.62,South,169,0.0,0.0,85,0.00,,BKN075,0.01,104.00,VWS V14.01,2013-08-13 21:35:00,
2013-08-13 17:36:00,67.4,62.7,29.62,South,169,0.0,0.0,85,0.00,,BKN075,0.01,102.00,VWS V14.01,2013-08-13 21:36:00,
2013-08-13 17:37:00,67.4,62.7,29.62,South,169,0.0,0.0,85,0.00,,BKN075,0.01,99.00,VWS V14.01,2013-08-13 21:37:00,
2013-08-13 17:40:00,67.4,62.7,29.62,South,169,0.0,0.0,85,0.00,,BKN075,0.01,100.00,VWS V14.01,2013-08-13 21:40:00,
2013-08-13 17:41:00,67.4,62.7,29.62,South,169,0.0,0.0,85,0.00,,BKN075,0.01,100.00,VWS V14.01,2013-08-13 21:41:00,
2013-08-13 17:43:00,67.6,63.3,29.62,South,169,0.0,0.0,86,0.00,,BKN075,0.01,116.00,VWS V14.01,2013-08-13 21:43:00,
2013-08-13 17:45:00,67.6,63.3,29.62,South,169,0.0,0.0,86,0.00,,BKN075,0.01,125.00,VWS V14.01,2013-08-13 21:45:00,
2013-08-13 17:46:00,67.6,63.6,29.61,South,169,0.0,0.0,87,0.00,,BKN075,0.01,134.00,VWS V14.01,2013-08-13 21:46:00,
2013-08-13 17:47:00,67.6,63.6,29.61,South,169,0.0,0.0,87,0.00,,BKN075,0.01,134.00,VWS V14.01,2013-08-13 21:47:00,
2013-08-13 17:48:00,67.8,64.1,29.61,South,169,0.0,0.0,88,0.00,,BKN075,0.01,134.00,VWS V14.01,2013-08-13 21:48:00,
2013-08-13 17:50:00,67.8,64.1,29.61,South,169,0.0,0.0,88,0.00,,BKN075,0.01,134.00,VWS V14.01,2013-08-13 21:50:00,
2013-08-13 17:51:00,67.8,64.1,29.61,South,169,0.0,0.0,88,0.00,,BKN075,0.01,134.00,VWS V14.01,2013-08-13 21:51:00,
2013-08-13 17:52:00,67.9,64.2,29.61,South,169,0.0,0.0,88,0.00,,BKN075,0.01,146.00,VWS V14.01,2013-08-13 21:52:00,
2013-08-13 17:54:00,67.9,64.2,29.61,South,169,0.0,0.0,88,0.00,,BKN075,0.01,127.00,VWS V14.01,2013-08-13 21:54:00,
2013-08-13 17:55:00,68.1,64.4,29.61,South,169,0.0,0.0,88,0.00,,BKN075,0.01,114.00,VWS V14.01,2013-08-13 21:55:00,
2013-08-13 17:56:00,68.1,64.4,29.61,South,169,0.0,0.0,88,0.00,,BKN075,0.01,102.00,VWS V14.01,2013-08-13 21:56:00,
2013-08-13 17:57:00,68.1,64.4,29.61,South,169,0.0,0.0,88,0.00,,BKN075,0.01,91.00,VWS V14.01,2013-08-13 21:57:00,
2013-08-13 17:58:00,68.1,64.4,29.61,South,169,0.0,0.0,88,0.00,,BKN075,0.01,86.00,VWS V14.01,2013-08-13 21:58:00,
2013-08-13 17:59:00,68.1,64.1,29.61,South,169,0.0,0.0,87,0.00,,BKN075,0.01,84.00,VWS V14.01,2013-08-13 21:59:00,
2013-08-13 18:00:00,68.1,64.1,29.61,South,169,0.0,0.0,87,0.00,,OVC060,0.01,90.00,VWS V14.01,2013-08-13 22:00:00,
2013-08-13 18:01:00,68.1,64.1,29.61,South,169,0.0,0.0,87,0.00,,OVC060,0.01,95.00,VWS V14.01,2013-08-13 22:01:00,
2013-08-13 18:02:00,68.1,64.1,29.61,South,169,0.0,0.0,87,0.00,,OVC060,0.01,97.00,VWS V14.01,2013-08-13 22:02:00,
2013-08-13 18:03:00,68.1,63.8,29.61,SSE,155,0.0,0.0,86,0.00,,OVC060,0.01,93.00,VWS V14.01,2013-08-13 22:03:00,
2013-08-13 18:05:00,68.1,63.8,29.61,SSE,155,0.0,0.0,86,0.00,,OVC060,0.01,91.00,VWS V14.01,2013-08-13 22:05:00,
2013-08-13 18:06:00,68.1,63.8,29.61,SSE,155,0.0,0.0,86,0.00,,OVC060,0.01,90.00,VWS V14.01,2013-08-13 22:06:00,
2013-08-13 18:07:00,68.1,63.8,29.61,SSE,155,0.0,0.0,86,0.00,,OVC060,0.01,86.00,VWS V14.01,2013-08-13 22:07:00,
2013-08-13 18:10:00,68.1,64.1,29.61,SSE,155,0.0,0.0,87,0.00,,OVC060,0.01,84.00,VWS V14.01,2013-08-13 22:10:00,
2013-08-13 18:11:00,68.1,64.1,29.61,SSE,155,0.0,0.0,87,0.00,,OVC060,0.01,83.00,VWS V14.01,2013-08-13 22:11:00,
2013-08-13 18:12:00,68.1,64.1,29.61,SSE,155,0.0,0.0,87,0.00,,OVC060,0.01,81.00,VWS V14.01,2013-08-13 22:12:00,
2013-08-13 18:15:00,68.1,64.1,29.61,SSE,155,0.0,0.0,87,0.00,,OVC060,0.01,74.00,VWS V14.01,2013-08-13 22:15:00,
2013-08-13 18:16:00,68.1,64.1,29.60,SSE,155,0.0,0.0,87,0.00,,OVC060,0.01,70.00,VWS V14.01,2013-08-13 22:16:00,
2013-08-13 18:17:00,68.1,64.1,29.60,SSE,155,0.0,0.0,87,0.00,,OVC060,0.01,65.00,VWS V14.01,2013-08-13 22:17:00,
2013-08-13 18:20:00,68.1,64.1,29.60,SSE,155,0.0,0.0,87,0.00,,OVC060,0.01,55.00,VWS V14.01,2013-08-13 22:20:00,
2013-08-13 18:21:00,68.1,64.1,29.60,SSE,155,0.0,0.0,87,0.00,,OVC060,0.01,55.00,VWS V14.01,2013-08-13 22:21:00,
2013-08-13 18:22:00,68.1,64.1,29.60,SSE,155,0.0,0.0,87,0.00,,OVC060,0.01,58.00,VWS V14.01,2013-08-13 22:22:00,
2013-08-13 18:23:00,68.1,63.8,29.60,SSE,157,0.0,0.0,86,0.00,,OVC060,0.01,60.00,VWS V14.01,2013-08-13 22:23:00,
2013-08-13 18:26:00,68.1,63.8,29.60,SSE,157,0.0,0.0,86,0.00,,OVC060,0.01,56.00,VWS V14.01,2013-08-13 22:26:00,
2013-08-13 18:28:00,68.1,64.1,29.60,SSE,157,0.0,0.0,87,0.00,,OVC060,0.01,62.00,VWS V14.01,2013-08-13 22:28:00,
2013-08-13 18:30:00,67.9,63.9,29.60,South,169,0.0,1.0,87,0.00,,OVC050,0.01,81.00,VWS V14.01,2013-08-13 22:30:00,
2013-08-13 18:31:00,68.1,64.1,29.60,South,169,0.0,1.0,87,0.00,,OVC060,0.01,91.00,VWS V14.01,2013-08-13 22:31:00,
2013-08-13 18:33:00,67.9,63.9,29.60,South,176,0.0,0.0,87,0.00,,OVC060,0.01,72.00,VWS V14.01,2013-08-13 22:33:00,
2013-08-13 18:36:00,67.9,63.6,29.60,South,176,0.0,0.0,86,0.00,,OVC060,0.01,46.00,VWS V14.01,2013-08-13 22:36:00,
2013-08-13 18:38:00,67.9,63.6,29.60,South,176,0.0,0.0,86,0.00,,OVC060,0.01,46.00,VWS V14.01,2013-08-13 22:38:00,
2013-08-13 18:39:00,67.9,63.6,29.60,South,176,0.0,0.0,86,0.00,,OVC060,0.01,48.00,VWS V14.01,2013-08-13 22:39:00,
2013-08-13 18:41:00,67.8,63.8,29.60,South,176,0.0,0.0,87,0.00,,OVC060,0.01,44.00,VWS V14.01,2013-08-13 22:41:00,
2013-08-13 18:43:00,67.8,63.5,29.60,South,176,0.0,0.0,86,0.00,,OVC060,0.01,39.00,VWS V14.01,2013-08-13 22:43:00,
2013-08-13 18:44:00,67.8,63.5,29.60,South,176,0.0,0.0,86,0.00,,OVC060,0.01,35.00,VWS V14.01,2013-08-13 22:44:00,
2013-08-13 18:47:00,67.8,63.8,29.60,South,176,0.0,0.0,87,0.00,,OVC060,0.01,25.00,VWS V14.01,2013-08-13 22:47:00,
2013-08-13 18:48:00,67.8,63.8,29.60,South,176,0.0,0.0,87,0.00,,OVC060,0.01,25.00,VWS V14.01,2013-08-13 22:48:00,
2013-08-13 18:49:00,67.8,63.8,29.60,South,176,0.0,0.0,87,0.00,,OVC060,0.01,25.00,VWS V14.01,2013-08-13 22:49:00,
2013-08-13 18:52:00,67.6,63.3,29.60,South,176,0.0,0.0,86,0.00,,OVC060,0.01,25.00,VWS V14.01,2013-08-13 22:52:00,
2013-08-13 18:53:00,67.6,63.3,29.60,South,176,0.0,0.0,86,0.00,,OVC060,0.01,25.00,VWS V14.01,2013-08-13 22:53:00,
2013-08-13 18:54:00,67.6,63.3,29.60,South,176,0.0,0.0,86,0.00,,OVC060,0.01,25.00,VWS V14.01,2013-08-13 22:54:00,
2013-08-13 18:55:00,67.6,63.3,29.60,South,176,0.0,0.0,86,0.00,,OVC060,0.01,18.00,VWS V14.01,2013-08-13 22:55:00,
2013-08-13 18:57:00,67.6,63.3,29.60,South,176,0.0,0.0,86,0.00,,OVC060,0.01,18.00,VWS V14.01,2013-08-13 22:57:00,
2013-08-13 18:58:00,67.6,63.6,29.60,South,176,0.0,0.0,87,0.00,,OVC060,0.01,18.00,VWS V14.01,2013-08-13 22:58:00,
2013-08-13 18:59:00,67.6,63.6,29.60,South,176,0.0,0.0,87,0.00,,OVC060,0.01,9.00,VWS V14.01,2013-08-13 22:59:00,
2013-08-13 19:00:00,67.6,63.6,29.60,South,176,0.0,0.0,87,0.00,,OVC044,0.01,9.00,VWS V14.01,2013-08-13 23:00:00,
2013-08-13 19:02:00,67.6,63.6,29.60,South,176,0.0,0.0,87,0.00,,OVC044,0.01,9.00,VWS V14.01,2013-08-13 23:02:00,
2013-08-13 19:04:00,67.6,63.6,29.60,South,176,0.0,0.0,87,0.00,,OVC044,0.01,7.00,VWS V14.01,2013-08-13 23:04:00,
2013-08-13 19:05:00,67.6,63.6,29.60,South,176,0.0,0.0,87,0.00,,OVC044,0.01,7.00,VWS V14.01,2013-08-13 23:05:00,
2013-08-13 19:06:00,67.4,63.4,29.60,South,176,0.0,0.0,87,0.00,,OVC044,0.01,7.00,VWS V14.01,2013-08-13 23:06:00,
2013-08-13 19:07:00,67.4,63.4,29.60,South,176,0.0,0.0,87,0.00,,OVC044,0.01,7.00,VWS V14.01,2013-08-13 23:07:00,
2013-08-13 19:10:00,67.4,63.7,29.60,South,176,0.0,0.0,88,0.00,,OVC044,0.01,9.00,VWS V14.01,2013-08-13 23:10:00,
2013-08-13 19:12:00,67.4,63.7,29.60,South,176,0.0,0.0,88,0.00,,OVC044,0.01,5.00,VWS V14.01,2013-08-13 23:12:00,
2013-08-13 19:13:00,67.4,63.7,29.60,South,176,0.0,0.0,88,0.00,,OVC044,0.01,5.00,VWS V14.01,2013-08-13 23:13:00,
2013-08-13 19:15:00,67.4,63.7,29.60,South,176,0.0,0.0,88,0.00,,OVC044,0.01,5.00,VWS V14.01,2013-08-13 23:15:00,
2013-08-13 19:16:00,67.3,63.6,29.60,South,176,0.0,0.0,88,0.00,,OVC044,0.01,5.00,VWS V14.01,2013-08-13 23:16:00,
2013-08-13 19:17:00,67.3,63.6,29.59,South,176,0.0,0.0,88,0.00,,OVC044,0.01,5.00,VWS V14.01,2013-08-13 23:17:00,
2013-08-13 19:18:00,67.3,63.6,29.59,South,176,0.0,0.0,88,0.00,,OVC044,0.01,5.00,VWS V14.01,2013-08-13 23:18:00,
2013-08-13 19:20:00,67.3,63.6,29.59,South,176,0.0,0.0,88,0.00,,OVC044,0.01,5.00,VWS V14.01,2013-08-13 23:20:00,
2013-08-13 19:21:00,67.3,63.6,29.59,South,176,0.0,0.0,88,0.00,,OVC044,0.01,5.00,VWS V14.01,2013-08-13 23:21:00,
2013-08-13 19:23:00,67.3,63.6,29.59,South,176,0.0,0.0,88,0.00,,OVC044,0.01,5.00,VWS V14.01,2013-08-13 23:23:00,
2013-08-13 19:24:00,67.3,63.6,29.59,South,176,0.0,0.0,88,0.00,,OVC044,0.01,5.00,VWS V14.01,2013-08-13 23:24:00,
2013-08-13 19:25:00,67.1,63.4,29.59,South,176,0.0,0.0,88,0.00,,OVC044,0.01,5.00,VWS V14.01,2013-08-13 23:25:00,
2013-08-13 19:26:00,67.1,63.8,29.59,South,176,0.0,0.0,89,0.00,,OVC044,0.01,5.00,VWS V14.01,2013-08-13 23:26:00,
2013-08-13 19:27:00,67.1,63.8,29.59,South,176,0.0,0.0,89,0.00,,OVC044,0.01,5.00,VWS V14.01,2013-08-13 23:27:00,
2013-08-13 19:29:00,67.1,63.8,29.59,South,176,0.0,0.0,89,0.00,,OVC044,0.01,0.00,VWS V14.01,2013-08-13 23:29:00,
2013-08-13 19:30:00,67.1,63.8,29.59,South,176,0.0,0.0,89,0.00,,OVC044,0.01,0.00,VWS V14.01,2013-08-13 23:30:00,
2013-08-13 19:31:00,67.1,63.8,29.59,South,176,0.0,0.0,89,0.00,,OVC044,0.01,0.00,VWS V14.01,2013-08-13 23:31:00,
2013-08-13 19:32:00,66.9,63.6,29.59,South,176,0.0,0.0,89,0.00,,OVC044,0.01,0.00,VWS V14.01,2013-08-13 23:32:00,
2013-08-13 19:34:00,66.9,63.6,29.59,South,176,0.0,0.0,89,0.00,,OVC044,0.01,0.00,VWS V14.01,2013-08-13 23:34:00,
2013-08-13 19:35:00,66.9,63.6,29.59,South,176,0.0,0.0,89,0.00,,OVC044,0.01,0.00,VWS V14.01,2013-08-13 23:35:00,
2013-08-13 19:36:00,66.9,63.6,29.59,South,176,0.0,0.0,89,0.00,,OVC044,0.01,0.00,VWS V14.01,2013-08-13 23:36:00,
2013-08-13 19:37:00,66.9,63.6,29.59,South,176,0.0,0.0,89,0.00,,OVC044,0.01,0.00,VWS V14.01,2013-08-13 23:37:00,
2013-08-13 19:39:00,66.8,63.5,29.59,South,176,0.0,0.0,89,0.00,,OVC044,0.01,0.00,VWS V14.01,2013-08-13 23:39:00,
2013-08-13 19:41:00,66.8,63.5,29.59,South,176,0.0,0.0,89,0.00,,OVC044,0.01,0.00,VWS V14.01,2013-08-13 23:41:00,
2013-08-13 19:42:00,66.8,63.5,29.59,South,176,0.0,0.0,89,0.00,,OVC044,0.01,0.00,VWS V14.01,2013-08-13 23:42:00,
2013-08-13 19:45:00,66.8,63.5,29.59,South,176,0.0,0.0,89,0.00,,OVC044,0.01,0.00,VWS V14.01,2013-08-13 23:45:00,
2013-08-13 19:46:00,66.6,63.3,29.59,South,176,0.0,0.0,89,0.00,,OVC044,0.01,0.00,VWS V14.01,2013-08-13 23:46:00,
2013-08-13 19:47:00,66.6,63.3,29.59,South,176,0.0,0.0,89,0.00,,OVC044,0.01,0.00,VWS V14.01,2013-08-13 23:47:00,
2013-08-13 19:50:00,66.6,63.3,29.59,South,176,0.0,0.0,89,0.00,,OVC044,0.01,0.00,VWS V14.01,2013-08-13 23:50:00,
2013-08-13 19:51:00,66.6,63.3,29.59,South,176,0.0,0.0,89,0.00,,OVC044,0.01,0.00,VWS V14.01,2013-08-13 23:51:00,
2013-08-13 19:52:00,66.4,63.1,29.59,South,176,0.0,0.0,89,0.00,,OVC044,0.01,0.00,VWS V14.01,2013-08-13 23:52:00,
2013-08-13 19:55:00,66.4,63.1,29.59,South,176,0.0,0.0,89,0.00,,OVC044,0.01,0.00,VWS V14.01,2013-08-13 23:55:00,
2013-08-13 19:56:00,66.4,63.1,29.59,South,176,0.0,0.0,89,0.00,,OVC044,0.01,0.00,VWS V14.01,2013-08-13 23:56:00,
2013-08-13 19:57:00,66.4,63.1,29.59,South,176,0.0,0.0,89,0.00,,OVC044,0.01,0.00,VWS V14.01,2013-08-13 23:57:00,
2013-08-13 20:00:00,66.4,63.4,29.59,South,176,0.0,0.0,90,0.00,,OVC044,0.01,0.00,VWS V14.01,2013-08-14 00:00:00,
2013-08-13 20:01:00,66.3,63.3,29.59,South,176,0.0,0.0,90,0.00,,OVC031,0.01,0.00,VWS V14.01,2013-08-14 00:01:00,
2013-08-13 20:02:00,66.3,63.3,29.59,South,176,0.0,0.0,90,0.00,,OVC031,0.01,0.00,VWS V14.01,2013-08-14 00:02:00,
2013-08-13 20:03:00,66.3,63.3,29.59,South,176,0.0,0.0,90,0.00,,OVC031,0.01,0.00,VWS V14.01,2013-08-14 00:03:00,
2013-08-13 20:05:00,66.3,63.3,29.59,South,176,0.0,0.0,90,0.00,,OVC031,0.01,0.00,VWS V14.01,2013-08-14 00:05:00,
2013-08-13 20:06:00,66.3,63.3,29.59,South,176,0.0,0.0,90,0.00,,OVC031,0.01,0.00,VWS V14.01,2013-08-14 00:06:00,
2013-08-13 20:07:00,66.3,63.3,29.59,South,176,0.0,0.0,90,0.00,,OVC031,0.01,0.00,VWS V14.01,2013-08-14 00:07:00,
2013-08-13 20:08:00,66.3,63.3,29.59,South,176,0.0,0.0,90,0.00,,OVC031,0.01,0.00,VWS V14.01,2013-08-14 00:08:00,
2013-08-13 20:11:00,66.1,63.1,29.59,South,176,0.0,0.0,90,0.00,,OVC031,0.01,0.00,VWS V14.01,2013-08-14 00:11:00,
2013-08-13 20:12:00,66.1,63.1,29.59,South,176,0.0,0.0,90,0.00,,OVC031,0.01,0.00,VWS V14.01,2013-08-14 00:12:00,
2013-08-13 20:13:00,66.1,63.1,29.59,South,176,0.0,0.0,90,0.00,,OVC031,0.01,0.00,VWS V14.01,2013-08-14 00:13:00,
2013-08-13 20:16:00,66.1,63.1,29.58,South,176,0.0,0.0,90,0.00,,OVC031,0.01,0.00,VWS V14.01,2013-08-14 00:16:00,
2013-08-13 20:17:00,66.1,63.1,29.58,South,176,0.0,0.0,90,0.00,,OVC031,0.01,0.00,VWS V14.01,2013-08-14 00:17:00,
2013-08-13 20:18:00,66.1,63.1,29.58,South,176,0.0,0.0,90,0.00,,OVC031,0.01,0.00,VWS V14.01,2013-08-14 00:18:00,
2013-08-13 20:19:00,66.1,63.1,29.58,South,176,0.0,0.0,90,0.00,,OVC031,0.01,0.00,VWS V14.01,2013-08-14 00:19:00,
2013-08-13 20:21:00,66.1,63.1,29.58,South,176,0.0,0.0,90,0.00,,OVC031,0.01,0.00,VWS V14.01,2013-08-14 00:21:00,
2013-08-13 20:22:00,66.0,63.3,29.58,South,176,0.0,0.0,91,0.00,,OVC031,0.01,0.00,VWS V14.01,2013-08-14 00:22:00,
2013-08-13 20:23:00,66.0,63.3,29.58,South,176,0.0,0.0,91,0.00,,OVC031,0.01,0.00,VWS V14.01,2013-08-14 00:23:00,
2013-08-13 20:24:00,66.0,63.3,29.58,South,176,0.0,0.0,91,0.00,,OVC031,0.01,0.00,VWS V14.01,2013-08-14 00:24:00,
2013-08-13 20:27:00,66.0,63.3,29.58,South,171,0.0,0.0,91,0.00,,OVC031,0.01,0.00,VWS V14.01,2013-08-14 00:27:00,
2013-08-13 20:29:00,66.0,63.3,29.58,South,176,0.0,0.0,91,0.00,,OVC031,0.01,0.00,VWS V14.01,2013-08-14 00:29:00,
2013-08-13 20:30:00,66.0,63.3,29.59,South,176,0.0,0.0,91,0.00,,OVC050,0.01,0.00,VWS V14.01,2013-08-14 00:30:00,
2013-08-13 20:32:00,66.0,63.3,29.59,South,176,0.0,0.0,91,0.00,,OVC031,0.01,0.00,VWS V14.01,2013-08-14 00:32:00,
2013-08-13 20:34:00,66.0,63.3,29.59,South,176,0.0,0.0,91,0.00,,OVC031,0.01,0.00,VWS V14.01,2013-08-14 00:34:00,
2013-08-13 20:35:00,66.0,63.3,29.59,South,176,0.0,0.0,91,0.00,,OVC031,0.01,0.00,VWS V14.01,2013-08-14 00:35:00,
2013-08-13 20:37:00,65.8,63.1,29.59,South,176,0.0,0.0,91,0.00,,OVC031,0.01,0.00,VWS V14.01,2013-08-14 00:37:00,
2013-08-13 20:39:00,65.8,63.4,29.59,South,176,0.0,0.0,92,0.00,,OVC031,0.01,0.00,VWS V14.01,2013-08-14 00:39:00,
2013-08-13 20:40:00,65.8,63.4,29.59,South,176,0.0,0.0,92,0.00,,OVC031,0.01,0.00,VWS V14.01,2013-08-14 00:40:00,
2013-08-13 20:42:00,65.8,63.4,29.59,South,176,0.0,0.0,92,0.00,,OVC031,0.01,0.00,VWS V14.01,2013-08-14 00:42:00,
2013-08-13 20:44:00,65.8,63.4,29.59,South,176,0.0,0.0,92,0.00,,OVC031,0.01,0.00,VWS V14.01,2013-08-14 00:44:00,
2013-08-13 20:45:00,65.8,63.4,29.59,South,176,0.0,0.0,92,0.00,,OVC031,0.01,0.00,VWS V14.01,2013-08-14 00:45:00,
2013-08-13 20:46:00,65.8,63.4,29.59,South,176,0.0,0.0,92,0.00,,OVC031,0.01,0.00,VWS V14.01,2013-08-14 00:46:00,
2013-08-13 20:47:00,65.8,63.4,29.58,South,176,0.0,0.0,92,0.00,,OVC031,0.01,0.00,VWS V14.01,2013-08-14 00:47:00,
2013-08-13 20:49:00,65.8,63.4,29.58,South,176,0.0,0.0,92,0.00,,OVC031,0.01,0.00,VWS V14.01,2013-08-14 00:49:00,
2013-08-13 20:50:00,65.8,63.4,29.58,South,176,0.0,0.0,92,0.00,,OVC031,0.01,0.00,VWS V14.01,2013-08-14 00:50:00,
2013-08-13 20:51:00,65.6,63.2,29.58,South,176,0.0,0.0,92,0.00,,OVC031,0.01,0.00,VWS V14.01,2013-08-14 00:51:00,
2013-08-13 20:52:00,65.6,63.2,29.58,South,176,0.0,0.0,92,0.00,,OVC031,0.01,0.00,VWS V14.01,2013-08-14 00:52:00,
2013-08-13 20:53:00,65.6,63.2,29.58,South,176,0.0,0.0,92,0.00,,OVC031,0.01,0.00,VWS V14.01,2013-08-14 00:53:00,
2013-08-13 20:54:00,65.6,63.2,29.58,South,181,0.0,0.0,92,0.00,,OVC031,0.01,0.00,VWS V14.01,2013-08-14 00:54:00,
2013-08-13 20:55:00,65.6,63.2,29.58,South,181,0.0,0.0,92,0.00,,OVC031,0.01,0.00,VWS V14.01,2013-08-14 00:55:00,
2013-08-13 20:56:00,65.6,63.2,29.58,South,181,0.0,0.0,92,0.00,,OVC031,0.01,0.00,VWS V14.01,2013-08-14 00:56:00,
2013-08-13 20:58:00,65.6,63.2,29.58,South,182,0.0,0.0,92,0.00,,OVC031,0.01,0.00,VWS V14.01,2013-08-14 00:58:00,
2013-08-13 20:59:00,65.6,63.2,29.58,South,182,0.0,0.0,92,0.00,,OVC031,0.01,0.00,VWS V14.01,2013-08-14 00:59:00,
2013-08-13 21:00:00,65.6,63.2,29.60,South,182,0.0,0.0,92,0.00,,OVC050,0.01,0.00,VWS V14.01,2013-08-14 01:00:00,
2013-08-13 21:01:00,65.6,63.2,29.58,South,182,0.0,0.0,92,0.00,,OVC031,0.01,0.00,VWS V14.01,2013-08-14 01:01:00,
2013-08-13 21:02:00,65.6,63.2,29.60,South,182,0.0,0.0,92,0.00,,OVC031,0.01,0.00,VWS V14.01,2013-08-14 01:02:00,
2013-08-13 21:04:00,65.6,63.2,29.60,South,182,0.0,0.0,92,0.00,,OVC031,0.01,0.00,VWS V14.01,2013-08-14 01:04:00,
2013-08-13 21:06:00,65.6,63.2,29.60,South,181,0.0,0.0,92,0.00,,OVC031,0.01,0.00,VWS V14.01,2013-08-14 01:06:00,
2013-08-13 21:08:00,65.6,63.2,29.60,South,181,0.0,0.0,92,0.00,,OVC031,0.01,0.00,VWS V14.01,2013-08-14 01:08:00,
2013-08-13 21:09:00,65.6,63.2,29.60,South,181,0.0,0.0,92,0.00,,OVC031,0.01,0.00,VWS V14.01,2013-08-14 01:09:00,
2013-08-13 21:10:00,65.5,63.4,29.60,South,181,0.0,0.0,93,0.00,,OVC031,0.01,0.00,VWS V14.01,2013-08-14 01:10:00,
2013-08-13 21:11:00,65.5,63.4,29.60,South,179,0.0,1.0,93,0.00,,OVC031,0.01,0.00,VWS V14.01,2013-08-14 01:11:00,
2013-08-13 21:13:00,65.5,63.4,29.60,South,179,0.0,1.0,93,0.00,,OVC031,0.01,0.00,VWS V14.01,2013-08-14 01:13:00,
2013-08-13 21:14:00,65.5,63.4,29.60,South,179,0.0,1.0,93,0.00,,OVC031,0.01,0.00,VWS V14.01,2013-08-14 01:14:00,
2013-08-13 21:16:00,65.5,63.4,29.60,South,179,0.0,1.0,93,0.00,,OVC031,0.01,0.00,VWS V14.01,2013-08-14 01:16:00,
2013-08-13 21:17:00,65.5,63.4,29.58,South,179,0.0,1.0,93,0.00,,OVC031,0.01,0.00,VWS V14.01,2013-08-14 01:17:00,
2013-08-13 21:18:00,65.5,63.4,29.58,South,179,0.0,1.0,93,0.00,,OVC031,0.01,0.00,VWS V14.01,2013-08-14 01:18:00,
2013-08-13 21:20:00,65.5,63.4,29.58,South,179,0.0,1.0,93,0.00,,OVC031,0.01,0.00,VWS V14.01,2013-08-14 01:20:00,
2013-08-13 21:21:00,65.5,63.4,29.58,South,179,0.0,1.0,93,0.00,,OVC031,0.01,0.00,VWS V14.01,2013-08-14 01:21:00,
2013-08-13 21:22:00,65.5,63.4,29.58,South,179,0.0,1.0,93,0.00,,OVC031,0.01,0.00,VWS V14.01,2013-08-14 01:22:00,
2013-08-13 21:24:00,65.5,63.4,29.58,South,179,0.0,1.0,93,0.00,,OVC031,0.01,0.00,VWS V14.01,2013-08-14 01:24:00,
2013-08-13 21:25:00,65.5,63.4,29.58,South,179,0.0,1.0,93,0.00,,OVC031,0.01,0.00,VWS V14.01,2013-08-14 01:25:00,
2013-08-13 21:26:00,65.5,63.4,29.58,South,179,0.0,1.0,93,0.00,,OVC031,0.01,0.00,VWS V14.01,2013-08-14 01:26:00,
2013-08-13 21:27:00,65.5,63.4,29.58,South,179,0.0,1.0,93,0.00,,OVC031,0.01,0.00,VWS V14.01,2013-08-14 01:27:00,
2013-08-13 21:29:00,65.5,63.4,29.58,South,179,0.0,1.0,93,0.00,,OVC031,0.01,0.00,VWS V14.01,2013-08-14 01:29:00,
2013-08-13 21:30:00,65.5,63.4,29.58,South,179,0.0,1.0,93,0.00,,OVC031,0.01,0.00,VWS V14.01,2013-08-14 01:30:00,
2013-08-13 21:31:00,65.5,63.4,29.58,South,179,0.0,1.0,93,0.00,,OVC031,0.01,0.00,VWS V14.01,2013-08-14 01:31:00,
2013-08-13 21:32:00,65.3,63.2,29.58,South,179,0.0,0.0,93,0.00,,OVC031,0.01,0.00,VWS V14.01,2013-08-14 01:32:00,
2013-08-13 21:33:00,65.3,63.2,29.58,South,179,0.0,0.0,93,0.00,,OVC031,0.01,0.00,VWS V14.01,2013-08-14 01:33:00,
2013-08-13 21:35:00,65.3,63.2,29.58,South,179,0.0,0.0,93,0.00,,OVC031,0.01,0.00,VWS V14.01,2013-08-14 01:35:00,
2013-08-13 21:36:00,65.3,63.2,29.58,South,179,0.0,0.0,93,0.00,,OVC031,0.01,0.00,VWS V14.01,2013-08-14 01:36:00,
2013-08-13 21:38:00,65.3,63.2,29.58,South,179,0.0,0.0,93,0.00,,OVC031,0.01,0.00,VWS V14.01,2013-08-14 01:38:00,
2013-08-13 21:40:00,65.3,63.2,29.58,South,179,0.0,0.0,93,0.00,,OVC031,0.01,0.00,VWS V14.01,2013-08-14 01:40:00,
2013-08-13 21:41:00,65.3,63.2,29.58,South,179,0.0,0.0,93,0.00,,OVC031,0.01,0.00,VWS V14.01,2013-08-14 01:41:00,
2013-08-13 21:42:00,65.3,63.2,29.58,South,179,0.0,0.0,93,0.00,,OVC031,0.01,0.00,VWS V14.01,2013-08-14 01:42:00,
2013-08-13 21:43:00,65.3,63.2,29.58,South,179,0.0,0.0,93,0.00,,OVC031,0.01,0.00,VWS V14.01,2013-08-14 01:43:00,
2013-08-13 21:44:00,65.3,63.2,29.58,South,179,0.0,0.0,93,0.00,,OVC031,0.01,0.00,VWS V14.01,2013-08-14 01:44:00,
2013-08-13 21:46:00,65.3,63.5,29.58,South,182,0.0,3.0,94,0.00,,OVC031,0.01,0.00,VWS V14.01,2013-08-14 01:46:00,
2013-08-13 21:48:00,65.3,63.5,29.58,SSE,148,0.0,5.0,94,0.00,,OVC031,0.01,0.00,VWS V14.01,2013-08-14 01:48:00,
2013-08-13 21:49:00,65.3,63.5,29.58,SSE,148,0.0,5.0,94,0.00,,OVC031,0.01,0.00,VWS V14.01,2013-08-14 01:49:00,
2013-08-13 21:51:00,65.2,63.4,29.58,South,171,0.0,5.0,94,0.00,,OVC031,0.01,0.00,VWS V14.01,2013-08-14 01:51:00,
2013-08-13 21:52:00,65.3,63.5,29.58,South,171,0.0,5.0,94,0.00,,OVC031,0.01,0.00,VWS V14.01,2013-08-14 01:52:00,
2013-08-13 21:54:00,65.2,63.4,29.58,South,174,0.0,5.0,94,0.00,,OVC031,0.01,0.00,VWS V14.01,2013-08-14 01:54:00,
2013-08-13 21:56:00,65.2,63.4,29.58,SW,230,0.0,5.0,94,0.00,,OVC031,0.01,0.00,VWS V14.01,2013-08-14 01:56:00,
2013-08-13 21:58:00,65.2,63.4,29.58,SW,224,0.0,5.0,94,0.00,,OVC031,0.01,0.00,VWS V14.01,2013-08-14 01:58:00,
2013-08-13 21:59:00,65.2,63.4,29.58,SW,224,0.0,5.0,94,0.00,,OVC031,0.01,0.00,VWS V14.01,2013-08-14 01:59:00,
2013-08-13 22:00:00,65.2,63.4,29.58,SW,224,2.0,5.0,94,0.00,,OVC031,0.01,0.00,VWS V14.01,2013-08-14 02:00:00,
2013-08-13 22:02:00,65.2,63.4,29.58,SW,224,0.0,0.0,94,0.00,,OVC042,0.01,0.00,VWS V14.01,2013-08-14 02:02:00,
2013-08-13 22:03:00,65.2,63.4,29.58,SW,224,0.0,0.0,94,0.00,,OVC042,0.01,0.00,VWS V14.01,2013-08-14 02:03:00,
2013-08-13 22:04:00,65.2,63.4,29.58,SW,223,0.0,0.0,94,0.00,,OVC042,0.01,0.00,VWS V14.01,2013-08-14 02:04:00,
2013-08-13 22:05:00,65.2,63.4,29.58,SW,223,0.0,0.0,94,0.00,,OVC042,0.01,0.00,VWS V14.01,2013-08-14 02:05:00,
2013-08-13 22:07:00,65.2,63.4,29.58,SW,223,0.0,0.0,94,0.00,,OVC042,0.01,0.00,VWS V14.01,2013-08-14 02:07:00,
2013-08-13 22:08:00,65.2,63.4,29.58,SW,223,0.0,0.0,94,0.00,,OVC042,0.01,0.00,VWS V14.01,2013-08-14 02:08:00,
2013-08-13 22:10:00,65.2,63.4,29.58,SW,223,0.0,0.0,94,0.00,,OVC042,0.01,0.00,VWS V14.01,2013-08-14 02:10:00,
2013-08-13 22:11:00,65.2,63.4,29.58,SW,223,0.0,0.0,94,0.00,,OVC042,0.01,0.00,VWS V14.01,2013-08-14 02:11:00,
2013-08-13 22:12:00,65.2,63.4,29.58,SW,223,1.0,1.0,94,0.00,,OVC042,0.01,0.00,VWS V14.01,2013-08-14 02:12:00,
2013-08-13 22:13:00,65.2,63.4,29.58,SSW,206,0.0,1.0,94,0.00,,OVC042,0.01,0.00,VWS V14.01,2013-08-14 02:13:00,
2013-08-13 22:15:00,65.2,63.7,29.58,SSW,206,0.0,1.0,95,0.00,,OVC042,0.01,0.00,VWS V14.01,2013-08-14 02:15:00,
2013-08-13 22:16:00,65.2,63.7,29.58,SSW,206,0.0,1.0,95,0.00,,OVC042,0.01,0.00,VWS V14.01,2013-08-14 02:16:00,
2013-08-13 22:17:00,65.2,63.7,29.59,SSW,206,0.0,1.0,95,0.00,,OVC042,0.01,0.00,VWS V14.01,2013-08-14 02:17:00,
2013-08-13 22:18:00,65.2,63.7,29.59,SSW,206,0.0,1.0,95,0.00,,OVC042,0.01,0.00,VWS V14.01,2013-08-14 02:18:00,
2013-08-13 22:20:00,65.2,63.7,29.59,South,174,0.0,1.0,95,0.00,,OVC042,0.01,0.00,VWS V14.01,2013-08-14 02:20:00,
2013-08-13 22:21:00,65.2,63.7,29.59,South,174,0.0,1.0,95,0.00,,OVC042,0.01,0.00,VWS V14.01,2013-08-14 02:21:00,
2013-08-13 22:22:00,65.2,63.7,29.59,South,174,0.0,1.0,95,0.00,,OVC042,0.01,0.00,VWS V14.01,2013-08-14 02:22:00,
2013-08-13 22:24:00,65.2,63.7,29.59,South,174,0.0,1.0,95,0.00,,OVC042,0.01,0.00,VWS V14.01,2013-08-14 02:24:00,
2013-08-13 22:25:00,65.2,63.7,29.59,South,174,0.0,1.0,95,0.00,,OVC042,0.01,0.00,VWS V14.01,2013-08-14 02:25:00,
2013-08-13 22:26:00,65.2,63.7,29.59,South,174,0.0,1.0,95,0.00,,OVC042,0.01,0.00,VWS V14.01,2013-08-14 02:26:00,
2013-08-13 22:27:00,65.2,63.7,29.59,South,174,0.0,1.0,95,0.00,,OVC042,0.01,0.00,VWS V14.01,2013-08-14 02:27:00,
2013-08-13 22:28:00,65.2,63.7,29.59,South,174,0.0,1.0,95,0.00,,OVC042,0.01,0.00,VWS V14.01,2013-08-14 02:28:00,
2013-08-13 22:29:00,65.2,63.7,29.59,South,174,0.0,1.0,95,0.00,,OVC042,0.01,0.00,VWS V14.01,2013-08-14 02:29:00,
2013-08-13 22:30:00,65.0,63.5,29.58,South,174,0.0,1.0,95,0.00,,OVC050,0.01,0.00,VWS V14.01,2013-08-14 02:30:00,
2013-08-13 22:31:00,65.0,63.5,29.59,South,174,0.0,1.0,95,0.00,,OVC042,0.01,0.00,VWS V14.01,2013-08-14 02:31:00,
2013-08-13 22:32:00,65.0,63.5,29.58,South,174,0.0,1.0,95,0.00,,OVC042,0.01,0.00,VWS V14.01,2013-08-14 02:32:00,
2013-08-13 22:33:00,65.0,63.5,29.58,South,175,0.0,0.0,95,0.00,,OVC042,0.01,0.00,VWS V14.01,2013-08-14 02:33:00,
2013-08-13 22:34:00,65.0,63.5,29.58,SSE,167,0.0,0.0,95,0.00,,OVC042,0.01,0.00,VWS V14.01,2013-08-14 02:34:00,
2013-08-13 22:36:00,65.0,63.5,29.58,SSE,168,0.0,0.0,95,0.00,,OVC042,0.01,0.00,VWS V14.01,2013-08-14 02:36:00,
2013-08-13 22:37:00,65.0,63.5,29.58,NE,40,0.0,0.0,95,0.00,,OVC042,0.01,0.00,VWS V14.01,2013-08-14 02:37:00,
2013-08-13 22:38:00,65.0,63.5,29.58,ENE,62,0.0,0.0,95,0.00,,OVC042,0.01,0.00,VWS V14.01,2013-08-14 02:38:00,
2013-08-13 22:39:00,65.0,63.5,29.58,ENE,62,0.0,1.0,95,0.00,,OVC042,0.01,0.00,VWS V14.01,2013-08-14 02:39:00,
2013-08-13 22:42:00,65.0,63.5,29.58,ENE,62,0.0,3.0,95,0.00,,OVC042,0.01,0.00,VWS V14.01,2013-08-14 02:42:00,
2013-08-13 22:43:00,65.0,63.5,29.58,ENE,64,0.0,3.0,95,0.00,,OVC042,0.01,0.00,VWS V14.01,2013-08-14 02:43:00,
2013-08-13 22:44:00,65.0,63.5,29.58,ENE,64,0.0,3.0,95,0.00,,OVC042,0.01,0.00,VWS V14.01,2013-08-14 02:44:00,
2013-08-13 22:45:00,65.0,63.5,29.58,South,175,0.0,3.0,95,0.00,,OVC042,0.01,0.00,VWS V14.01,2013-08-14 02:45:00,
2013-08-13 22:47:00,65.0,63.5,29.58,South,176,0.0,3.0,95,0.00,,OVC042,0.01,0.00,VWS V14.01,2013-08-14 02:47:00,
2013-08-13 22:49:00,64.8,63.3,29.58,South,176,0.0,3.0,95,0.00,,OVC042,0.01,0.00,VWS V14.01,2013-08-14 02:49:00,
2013-08-13 22:50:00,64.8,63.3,29.58,South,178,0.0,3.0,95,0.00,,OVC042,0.01,0.00,VWS V14.01,2013-08-14 02:50:00,
2013-08-13 22:52:00,64.8,63.3,29.58,South,178,0.0,3.0,95,0.00,,OVC042,0.01,0.00,VWS V14.01,2013-08-14 02:52:00,
2013-08-13 22:53:00,64.8,63.3,29.58,South,178,0.0,3.0,95,0.00,,OVC042,0.01,0.00,VWS V14.01,2013-08-14 02:53:00,
2013-08-13 22:54:00,64.8,63.3,29.58,SSE,165,0.0,3.0,95,0.00,,OVC042,0.01,0.00,VWS V14.01,2013-08-14 02:54:00,
2013-08-13 22:55:00,64.8,63.3,29.58,SSE,164,0.0,3.0,95,0.00,,OVC042,0.01,0.00,VWS V14.01,2013-08-14 02:55:00,
2013-08-13 22:58:00,64.8,63.3,29.58,SSW,199,0.0,3.0,95,0.00,,OVC042,0.01,0.00,VWS V14.01,2013-08-14 02:58:00,
2013-08-13 22:59:00,64.8,63.3,29.58,SSW,199,0.0,3.0,95,0.00,,OVC042,0.01,0.00,VWS V14.01,2013-08-14 02:59:00,
2013-08-13 23:00:00,64.8,63.3,29.58,SSW,199,0.0,3.0,95,0.00,,SCT060,0.01,0.00,VWS V14.01,2013-08-14 03:00:00,
2013-08-13 23:01:00,64.8,63.3,29.58,SSW,200,2.0,6.0,95,0.00,,SCT060,0.01,0.00,VWS V14.01,2013-08-14 03:01:00,
2013-08-13 23:03:00,64.7,63.2,29.58,SSW,195,0.0,2.0,95,0.00,,SCT060,0.01,0.00,VWS V14.01,2013-08-14 03:03:00,
2013-08-13 23:04:00,64.7,63.2,29.58,SSW,195,0.0,2.0,95,0.00,,SCT060,0.01,0.00,VWS V14.01,2013-08-14 03:04:00,
2013-08-13 23:05:00,64.7,63.2,29.58,SSW,195,0.0,2.0,95,0.00,,SCT060,0.01,0.00,VWS V14.01,2013-08-14 03:05:00,
2013-08-13 23:07:00,64.7,63.2,29.58,South,191,0.0,2.0,95,0.00,,SCT060,0.01,0.00,VWS V14.01,2013-08-14 03:07:00,
2013-08-13 23:09:00,64.7,63.2,29.58,SSW,200,0.0,3.0,95,0.00,,SCT060,0.01,0.00,VWS V14.01,2013-08-14 03:09:00,
2013-08-13 23:10:00,64.7,63.2,29.58,SSW,202,0.0,3.0,95,0.00,,SCT060,0.01,0.00,VWS V14.01,2013-08-14 03:10:00,
2013-08-13 23:13:00,64.7,63.2,29.58,SE,138,0.0,3.0,95,0.00,,SCT060,0.01,0.00,VWS V14.01,2013-08-14 03:13:00,
2013-08-13 23:14:00,64.7,63.2,29.58,SE,138,0.0,3.0,95,0.00,,SCT060,0.01,0.00,VWS V14.01,2013-08-14 03:14:00,
2013-08-13 23:15:00,64.7,63.2,29.58,SE,138,0.0,3.0,95,0.00,,SCT060,0.01,0.00,VWS V14.01,2013-08-14 03:15:00,
2013-08-13 23:16:00,64.7,63.2,29.58,SE,138,0.0,3.0,95,0.00,,SCT060,0.01,0.00,VWS V14.01,2013-08-14 03:16:00,
2013-08-13 23:18:00,64.7,63.2,29.58,South,189,3.0,3.0,95,0.00,,SCT060,0.01,0.00,VWS V14.01,2013-08-14 03:18:00,
2013-08-13 23:19:00,64.7,63.2,29.58,SSW,193,0.0,5.0,95,0.00,,SCT060,0.01,0.00,VWS V14.01,2013-08-14 03:19:00,
2013-08-13 23:20:00,64.7,63.2,29.58,SSW,198,0.0,5.0,95,0.00,,SCT060,0.01,0.00,VWS V14.01,2013-08-14 03:20:00,
2013-08-13 23:21:00,64.7,63.2,29.58,SSW,199,0.0,5.0,95,0.00,,SCT060,0.01,0.00,VWS V14.01,2013-08-14 03:21:00,
2013-08-13 23:23:00,64.7,63.2,29.58,SSE,164,0.0,5.0,95,0.00,,SCT060,0.01,0.00,VWS V14.01,2013-08-14 03:23:00,
2013-08-13 23:25:00,64.7,63.2,29.58,SSE,164,0.0,5.0,95,0.00,,SCT060,0.01,0.00,VWS V14.01,2013-08-14 03:25:00,
2013-08-13 23:26:00,64.7,63.2,29.58,South,185,0.0,5.0,95,0.00,,SCT060,0.01,0.00,VWS V14.01,2013-08-14 03:26:00,
2013-08-13 23:29:00,64.5,63.0,29.58,South,185,0.0,5.0,95,0.00,,SCT060,0.01,0.00,VWS V14.01,2013-08-14 03:29:00,
2013-08-13 23:30:00,64.5,63.0,29.58,South,185,0.0,5.0,95,0.00,,SCT060,0.01,0.00,VWS V14.01,2013-08-14 03:30:00,
2013-08-13 23:31:00,64.5,63.0,29.58,South,185,0.0,5.0,95,0.00,,SCT060,0.01,0.00,VWS V14.01,2013-08-14 03:31:00,
2013-08-13 23:32:00,64.5,63.3,29.58,South,185,0.0,5.0,96,0.00,,SCT060,0.01,0.00,VWS V14.01,2013-08-14 03:32:00,
2013-08-13 23:35:00,64.5,63.0,29.58,South,186,1.0,2.0,95,0.00,,SCT060,0.01,0.00,VWS V14.01,2013-08-14 03:35:00,
2013-08-13 23:36:00,64.5,63.0,29.58,SW,229,0.0,4.0,95,0.00,,SCT060,0.01,0.00,VWS V14.01,2013-08-14 03:36:00,
2013-08-13 23:37:00,64.5,63.0,29.58,SW,226,0.0,4.0,95,0.00,,SCT060,0.01,0.00,VWS V14.01,2013-08-14 03:37:00,
2013-08-13 23:38:00,64.5,63.0,29.58,SW,226,0.0,4.0,95,0.00,,SCT060,0.01,0.00,VWS V14.01,2013-08-14 03:38:00,
2013-08-13 23:41:00,64.5,63.3,29.58,South,179,0.0,4.0,96,0.00,,SCT060,0.01,0.00,VWS V14.01,2013-08-14 03:41:00,
2013-08-13 23:42:00,64.5,63.3,29.58,South,184,0.0,4.0,96,0.00,,SCT060,0.01,0.00,VWS V14.01,2013-08-14 03:42:00,
2013-08-13 23:43:00,64.5,63.3,29.58,South,185,0.0,4.0,96,0.00,,SCT060,0.01,0.00,VWS V14.01,2013-08-14 03:43:00,
2013-08-13 23:46:00,64.5,63.3,29.58,South,185,0.0,4.0,96,0.00,,SCT060,0.01,0.00,VWS V14.01,2013-08-14 03:46:00,
2013-08-13 23:47:00,64.5,63.3,29.57,SW,224,0.0,4.0,96,0.00,,SCT060,0.01,0.00,VWS V14.01,2013-08-14 03:47:00,
2013-08-13 23:49:00,64.3,63.1,29.57,SW,224,0.0,4.0,96,0.00,,SCT060,0.01,0.00,VWS V14.01,2013-08-14 03:49:00,
2013-08-13 23:51:00,64.3,63.1,29.57,SW,219,0.0,4.0,96,0.00,,SCT060,0.01,0.00,VWS V14.01,2013-08-14 03:51:00,
2013-08-13 23:52:00,64.3,63.1,29.57,SW,226,0.0,4.0,96,0.00,,SCT060,0.01,0.00,VWS V14.01,2013-08-14 03:52:00,
2013-08-13 23:54:00,64.3,63.1,29.57,SW,226,0.0,4.0,96,0.00,,SCT060,0.01,0.00,VWS V14.01,2013-08-14 03:54:00,
2013-08-13 23:56:00,64.3,63.1,29.57,SW,226,0.0,4.0,96,0.00,,SCT060,0.01,0.00,VWS V14.01,2013-08-14 03:56:00,
2013-08-13 23:57:00,64.3,63.1,29.57,SW,226,0.0,4.0,96,0.00,,SCT060,0.01,0.00,VWS V14.01,2013-08-14 03:57:00,
2013-08-13 23:59:00,64.3,63.1,29.57,SW,226,0.0,4.0,96,0.00,,SCT060,0.01,0.00,VWS V14.01,2013-08-14 03:59:00,